Wetterdaten: Dienstag, 24.07.2018
Datum Zeit Temp. Aussen Temp. o. S. +5cm Feuchte Auss Luftdruck Regen Sonnenschein Regendauer Solar Windben Empfang
24.07.2018 00:00 22,3 C 20,6 C 19,4 C 75 % 1013,9 hPa 0,0 l/m 0 min 0 min 0 W/m 0,0 km/h (0 Bft) 97,83 %
24.07.2018 00:02 22,3 C 20,6 C 19,4 C 76 % 1013,9 hPa 0,0 l/m 0 min 0 min 0 W/m 0,0 km/h (0 Bft) 95,12 %
24.07.2018 00:04 22,3 C 20,6 C 19,4 C 76 % 1013,9 hPa 0,0 l/m 0 min 0 min 0 W/m 0,0 km/h (0 Bft) 97,87 %
24.07.2018 00:08 22,2 C 20,0 C 19,4 C 76 % 1013,9 hPa 0,0 l/m 0 min 0 min 0 W/m 0,0 km/h (0 Bft) 95,12 %
24.07.2018 00:10 22,1 C 20,0 C 19,4 C 76 % 1014,0 hPa 0,0 l/m 0 min 0 min 0 W/m 0,0 km/h (0 Bft) 95,74 %
24.07.2018 00:12 22,1 C 20,0 C 19,4 C 76 % 1013,9 hPa 0,0 l/m 0 min 0 min 0 W/m 0,0 km/h (0 Bft) 95,74 %
24.07.2018 00:14 22,0 C 20,0 C 19,4 C 76 % 1013,9 hPa 0,0 l/m 0 min 0 min 0 W/m 0,0 km/h (0 Bft) 95,65 %
24.07.2018 00:16 22,0 C 20,0 C 19,4 C 77 % 1013,9 hPa 0,0 l/m 0 min 0 min 0 W/m 0,0 km/h (0 Bft) 95,83 %
24.07.2018 00:18 21,9 C 20,0 C 19,4 C 77 % 1013,9 hPa 0,0 l/m 0 min 0 min 0 W/m 0,0 km/h (0 Bft) 95,74 %
24.07.2018 00:20 21,9 C 20,0 C 19,4 C 77 % 1014,0 hPa 0,0 l/m 0 min 0 min 0 W/m 0,0 km/h (0 Bft) 94,92 %
24.07.2018 00:22 21,9 C 20,0 C 19,4 C 77 % 1014,0 hPa 0,0 l/m 0 min 0 min 0 W/m 0,0 km/h (0 Bft) 95,65 %
24.07.2018 00:24 21,8 C 20,0 C 18,9 C 77 % 1014,0 hPa 0,0 l/m 0 min 0 min 0 W/m 0,0 km/h (0 Bft) 97,22 %
24.07.2018 00:26 21,8 C 20,0 C 19,4 C 77 % 1014,0 hPa 0,0 l/m 0 min 0 min 0 W/m 0,0 km/h (0 Bft) 95,65 %
24.07.2018 00:28 21,7 C 20,0 C 18,9 C 77 % 1014,0 hPa 0,0 l/m 0 min 0 min 0 W/m 0,0 km/h (0 Bft) 95,74 %
24.07.2018 00:30 21,7 C 20,0 C 18,9 C 78 % 1014,0 hPa 0,0 l/m 0 min 0 min 0 W/m 0,0 km/h (0 Bft) 95,74 %
24.07.2018 00:32 21,7 C 20,0 C 18,9 C 78 % 1013,9 hPa 0,0 l/m 0 min 0 min 0 W/m 0,0 km/h (0 Bft) 92,59 %
24.07.2018 00:34 21,6 C 20,0 C 18,9 C 78 % 1013,9 hPa 0,0 l/m 0 min 0 min 0 W/m 0,0 km/h (0 Bft) 95,65 %
24.07.2018 00:36 21,6 C 20,0 C 18,9 C 78 % 1014,0 hPa 0,0 l/m 0 min 0 min 0 W/m 0,0 km/h (0 Bft) 95,74 %
24.07.2018 00:38 21,6 C 20,6 C 18,9 C 78 % 1014,0 hPa 0,0 l/m 0 min 0 min 0 W/m 6,8 km/h (2 Bft) 95,74 %
24.07.2018 00:40 21,5 C 20,6 C 19,4 C 78 % 1014,0 hPa 0,0 l/m 0 min 0 min 0 W/m 4,5 km/h (1 Bft) 93,62 %
24.07.2018 00:42 21,5 C 20,6 C 19,4 C 78 % 1014,0 hPa 0,0 l/m 0 min 0 min 0 W/m 0,0 km/h (0 Bft) 93,62 %
24.07.2018 00:44 21,4 C 20,6 C 19,4 C 78 % 1013,9 hPa 0,0 l/m 0 min 0 min 0 W/m 2,3 km/h (1 Bft) 97,87 %
24.07.2018 00:46 21,4 C 20,6 C 19,4 C 78 % 1013,9 hPa 0,0 l/m 0 min 0 min 0 W/m 0,0 km/h (0 Bft) 95,65 %
24.07.2018 00:48 21,4 C 20,0 C 19,4 C 79 % 1013,9 hPa 0,0 l/m 0 min 0 min 0 W/m 0,0 km/h (0 Bft) 95,74 %
24.07.2018 00:50 21,4 C 20,0 C 19,4 C 79 % 1013,9 hPa 0,0 l/m 0 min 0 min 0 W/m 0,0 km/h (0 Bft) 95,74 %
24.07.2018 00:52 21,4 C 20,0 C 19,4 C 79 % 1013,9 hPa 0,0 l/m 0 min 0 min 0 W/m 0,0 km/h (0 Bft) 97,87 %
24.07.2018 00:54 21,3 C 20,0 C 19,4 C 79 % 1013,9 hPa 0,0 l/m 0 min 0 min 0 W/m 0,0 km/h (0 Bft) 95,74 %
24.07.2018 00:56 21,3 C 20,0 C 18,9 C 79 % 1013,9 hPa 0,0 l/m 0 min 0 min 0 W/m 0,0 km/h (0 Bft) 97,87 %
24.07.2018 00:58 21,3 C 20,0 C 18,9 C 79 % 1013,9 hPa 0,0 l/m 0 min 0 min 0 W/m 0,0 km/h (0 Bft) 95,65 %
24.07.2018 01:00 21,3 C 19,4 C 18,9 C 79 % 1014,0 hPa 0,0 l/m 0 min 0 min 0 W/m 0,0 km/h (0 Bft) 97,87 %
24.07.2018 01:02 21,2 C 19,4 C 18,9 C 79 % 1014,0 hPa 0,0 l/m 0 min 0 min 0 W/m 0,0 km/h (0 Bft) 97,96 %
24.07.2018 01:04 21,2 C 19,4 C 18,9 C 80 % 1013,8 hPa 0,0 l/m 0 min 0 min 0 W/m 0,0 km/h (0 Bft) 97,87 %
24.07.2018 01:06 21,2 C 19,4 C 18,9 C 80 % 1013,9 hPa 0,0 l/m 0 min 0 min 0 W/m 0,0 km/h (0 Bft) 98,00 %
24.07.2018 01:08 21,2 C 19,4 C 18,9 C 80 % 1013,9 hPa 0,0 l/m 0 min 0 min 0 W/m 0,0 km/h (0 Bft) 97,87 %
24.07.2018 01:10 21,1 C 19,4 C 18,9 C 80 % 1013,9 hPa 0,0 l/m 0 min 0 min 0 W/m 0,0 km/h (0 Bft) 100,00 %
24.07.2018 01:12 21,1 C 19,4 C 18,9 C 80 % 1013,9 hPa 0,0 l/m 0 min 0 min 0 W/m 0,0 km/h (0 Bft) 100,00 %
24.07.2018 01:14 21,1 C 19,4 C 18,9 C 80 % 1014,0 hPa 0,0 l/m 0 min 0 min 0 W/m 0,0 km/h (0 Bft) 97,87 %
24.07.2018 01:16 21,0 C 19,4 C 18,9 C 80 % 1014,0 hPa 0,0 l/m 0 min 0 min 0 W/m 0,0 km/h (0 Bft) 97,87 %
24.07.2018 01:18 21,0 C 19,4 C 18,9 C 80 % 1014,0 hPa 0,0 l/m 0 min 0 min 0 W/m 0,0 km/h (0 Bft) 100,00 %
24.07.2018 01:20 21,0 C 18,9 C 18,9 C 81 % 1013,8 hPa 0,0 l/m 0 min 0 min 0 W/m 0,0 km/h (0 Bft) 100,00 %
24.07.2018 01:22 21,0 C 19,4 C 18,9 C 81 % 1013,8 hPa 0,0 l/m 0 min 0 min 0 W/m 0,0 km/h (0 Bft) 100,00 %
24.07.2018 01:24 20,9 C 19,4 C 18,9 C 81 % 1013,8 hPa 0,0 l/m 0 min 0 min 0 W/m 0,0 km/h (0 Bft) 100,00 %
24.07.2018 01:26 20,9 C 19,4 C 18,9 C 81 % 1013,8 hPa 0,0 l/m 0 min 0 min 0 W/m 0,0 km/h (0 Bft) 97,87 %
24.07.2018 01:28 20,9 C 19,4 C 18,9 C 81 % 1013,8 hPa 0,0 l/m 0 min 0 min 0 W/m 0,0 km/h (0 Bft) 100,00 %
24.07.2018 01:30 20,8 C 19,4 C 18,9 C 81 % 1013,8 hPa 0,0 l/m 0 min 0 min 0 W/m 0,0 km/h (0 Bft) 100,00 %
24.07.2018 01:32 20,8 C 18,9 C 18,9 C 81 % 1013,7 hPa 0,0 l/m 0 min 0 min 0 W/m 0,0 km/h (0 Bft) 100,00 %
24.07.2018 01:34 20,8 C 18,9 C 18,9 C 81 % 1013,8 hPa 0,0 l/m 0 min 0 min 0 W/m 0,0 km/h (0 Bft) 100,00 %
24.07.2018 01:36 20,7 C 18,9 C 18,3 C 81 % 1013,8 hPa 0,0 l/m 0 min 0 min 0 W/m 0,0 km/h (0 Bft) 100,00 %
24.07.2018 01:38 20,7 C 18,9 C 18,3 C 81 % 1013,6 hPa 0,0 l/m 0 min 0 min 0 W/m 0,0 km/h (0 Bft) 100,00 %
24.07.2018 01:40 20,7 C 18,9 C 18,3 C 81 % 1013,7 hPa 0,0 l/m 0 min 0 min 0 W/m 0,0 km/h (0 Bft) 100,00 %
24.07.2018 01:42 20,6 C 18,9 C 18,3 C 81 % 1013,7 hPa 0,0 l/m 0 min 0 min 0 W/m 0,0 km/h (0 Bft) 100,00 %
24.07.2018 01:44 20,6 C 18,9 C 18,3 C 82 % 1013,7 hPa 0,0 l/m 0 min 0 min 0 W/m 0,0 km/h (0 Bft) 100,00 %
24.07.2018 01:46 20,6 C 18,9 C 18,3 C 82 % 1013,8 hPa 0,0 l/m 0 min 0 min 0 W/m 0,0 km/h (0 Bft) 97,83 %
24.07.2018 01:48 20,5 C 18,9 C 18,3 C 82 % 1013,7 hPa 0,0 l/m 0 min 0 min 0 W/m 0,0 km/h (0 Bft) 97,87 %
24.07.2018 01:50 20,5 C 18,9 C 18,3 C 82 % 1013,8 hPa 0,0 l/m 0 min 0 min 0 W/m 0,0 km/h (0 Bft) 97,87 %
24.07.2018 01:52 20,4 C 18,9 C 18,3 C 82 % 1013,8 hPa 0,0 l/m 0 min 0 min 0 W/m 0,0 km/h (0 Bft) 93,62 %
24.07.2018 01:54 20,4 C 18,9 C 18,3 C 82 % 1013,7 hPa 0,0 l/m 0 min 0 min 0 W/m 0,0 km/h (0 Bft) 97,87 %
24.07.2018 01:56 20,4 C 18,9 C 18,3 C 82 % 1013,7 hPa 0,0 l/m 0 min 0 min 0 W/m 0,0 km/h (0 Bft) 95,65 %
24.07.2018 01:58 20,4 C 18,9 C 18,3 C 83 % 1013,6 hPa 0,0 l/m 0 min 0 min 0 W/m 0,0 km/h (0 Bft) 97,87 %
24.07.2018 02:00 20,3 C 18,9 C 18,3 C 83 % 1013,6 hPa 0,0 l/m 0 min 0 min 0 W/m 0,0 km/h (0 Bft) 97,87 %
24.07.2018 02:02 20,3 C 18,9 C 18,3 C 83 % 1013,6 hPa 0,0 l/m 0 min 0 min 0 W/m 0,0 km/h (0 Bft) 97,87 %
24.07.2018 02:04 20,3 C 18,9 C 18,3 C 83 % 1013,6 hPa 0,0 l/m 0 min 0 min 0 W/m 0,0 km/h (0 Bft) 97,87 %
24.07.2018 02:06 20,3 C 18,9 C 18,3 C 83 % 1013,6 hPa 0,0 l/m 0 min 0 min 0 W/m 0,0 km/h (0 Bft) 95,74 %
24.07.2018 02:08 20,2 C 18,9 C 18,3 C 83 % 1013,6 hPa 0,0 l/m 0 min 0 min 0 W/m 0,0 km/h (0 Bft) 97,83 %
24.07.2018 02:10 20,2 C 18,9 C 18,3 C 83 % 1013,6 hPa 0,0 l/m 0 min 0 min 0 W/m 0,0 km/h (0 Bft) 95,74 %
24.07.2018 02:12 20,2 C 18,9 C 18,3 C 83 % 1013,5 hPa 0,0 l/m 0 min 0 min 0 W/m 0,0 km/h (0 Bft) 97,87 %
24.07.2018 02:14 20,2 C 18,9 C 18,3 C 83 % 1013,5 hPa 0,0 l/m 0 min 0 min 0 W/m 0,0 km/h (0 Bft) 97,87 %
24.07.2018 02:16 20,1 C 18,3 C 18,3 C 83 % 1013,5 hPa 0,0 l/m 0 min 0 min 0 W/m 0,0 km/h (0 Bft) 97,87 %
24.07.2018 02:18 20,1 C 18,3 C 18,3 C 84 % 1013,5 hPa 0,0 l/m 0 min 0 min 0 W/m 0,0 km/h (0 Bft) 97,87 %
24.07.2018 02:20 20,1 C 18,3 C 18,3 C 84 % 1013,6 hPa 0,0 l/m 0 min 0 min 0 W/m 0,0 km/h (0 Bft) 97,83 %
24.07.2018 02:22 20,0 C 18,3 C 18,3 C 84 % 1013,6 hPa 0,0 l/m 0 min 0 min 0 W/m 0,0 km/h (0 Bft) 97,87 %
24.07.2018 02:24 20,0 C 18,3 C 18,3 C 84 % 1013,6 hPa 0,0 l/m 0 min 0 min 0 W/m 0,0 km/h (0 Bft) 95,74 %
24.07.2018 02:26 19,9 C 18,3 C 18,3 C 84 % 1013,5 hPa 0,0 l/m 0 min 0 min 0 W/m 0,0 km/h (0 Bft) 97,87 %
24.07.2018 02:28 19,9 C 18,3 C 18,3 C 84 % 1013,5 hPa 0,0 l/m 0 min 0 min 0 W/m 0,0 km/h (0 Bft) 95,74 %
24.07.2018 02:30 19,9 C 18,3 C 18,3 C 84 % 1013,5 hPa 0,0 l/m 0 min 0 min 0 W/m 0,0 km/h (0 Bft) 95,74 %
24.07.2018 02:32 19,9 C 18,9 C 18,3 C 84 % 1013,5 hPa 0,0 l/m 0 min 0 min 0 W/m 2,3 km/h (1 Bft) 97,83 %
24.07.2018 02:34 19,9 C 18,9 C 18,3 C 84 % 1013,5 hPa 0,0 l/m 0 min 0 min 0 W/m 2,3 km/h (1 Bft) 100,00 %
24.07.2018 02:36 19,9 C 19,4 C 18,3 C 84 % 1013,5 hPa 0,0 l/m 0 min 0 min 0 W/m 4,5 km/h (1 Bft) 98,00 %
24.07.2018 02:38 19,8 C 19,4 C 18,3 C 84 % 1013,5 hPa 0,0 l/m 0 min 0 min 0 W/m 4,5 km/h (1 Bft) 97,87 %
24.07.2018 02:40 19,8 C 19,4 C 18,3 C 85 % 1013,4 hPa 0,0 l/m 0 min 0 min 0 W/m 4,5 km/h (1 Bft) 95,74 %
24.07.2018 02:42 19,8 C 19,4 C 18,3 C 85 % 1013,4 hPa 0,0 l/m 0 min 0 min 0 W/m 4,5 km/h (1 Bft) 100,00 %
24.07.2018 02:44 19,8 C 19,4 C 18,3 C 85 % 1013,4 hPa 0,0 l/m 0 min 0 min 0 W/m 2,3 km/h (1 Bft) 95,74 %
24.07.2018 02:46 19,8 C 19,4 C 18,3 C 85 % 1013,4 hPa 0,0 l/m 0 min 0 min 0 W/m 0,0 km/h (0 Bft) 97,87 %
24.07.2018 02:48 19,8 C 20,0 C 18,3 C 85 % 1013,4 hPa 0,0 l/m 0 min 0 min 0 W/m 4,5 km/h (1 Bft) 97,87 %
24.07.2018 02:50 19,8 C 20,0 C 18,3 C 85 % 1013,4 hPa 0,0 l/m 0 min 0 min 0 W/m 6,8 km/h (2 Bft) 95,74 %
24.07.2018 02:52 19,8 C 20,0 C 18,3 C 85 % 1013,4 hPa 0,0 l/m 0 min 0 min 0 W/m 4,5 km/h (1 Bft) 97,87 %
24.07.2018 02:54 19,8 C 20,0 C 18,3 C 85 % 1013,4 hPa 0,0 l/m 0 min 0 min 0 W/m 4,5 km/h (1 Bft) 97,83 %
24.07.2018 02:56 19,8 C 20,0 C 18,3 C 85 % 1013,4 hPa 0,0 l/m 0 min 0 min 0 W/m 4,5 km/h (1 Bft) 95,74 %
24.07.2018 02:58 19,8 C 20,0 C 18,9 C 85 % 1013,4 hPa 0,0 l/m 0 min 0 min 0 W/m 4,5 km/h (1 Bft) 97,87 %
24.07.2018 03:00 19,8 C 20,0 C 18,9 C 85 % 1013,4 hPa 0,0 l/m 0 min 0 min 0 W/m 4,5 km/h (1 Bft) 97,87 %
24.07.2018 03:02 19,8 C 20,0 C 18,9 C 85 % 1013,4 hPa 0,0 l/m 0 min 0 min 0 W/m 6,8 km/h (2 Bft) 95,92 %
24.07.2018 03:04 19,8 C 20,0 C 18,9 C 85 % 1013,4 hPa 0,0 l/m 0 min 0 min 0 W/m 6,8 km/h (2 Bft) 95,74 %
24.07.2018 03:06 19,9 C 20,0 C 18,9 C 85 % 1013,4 hPa 0,0 l/m 0 min 0 min 0 W/m 4,5 km/h (1 Bft) 97,96 %
24.07.2018 03:08 19,9 C 20,0 C 18,9 C 84 % 1013,3 hPa 0,0 l/m 0 min 0 min 0 W/m 4,5 km/h (1 Bft) 97,87 %
24.07.2018 03:10 19,9 C 20,0 C 18,9 C 84 % 1013,4 hPa 0,0 l/m 0 min 0 min 0 W/m 6,8 km/h (2 Bft) 97,87 %
24.07.2018 03:12 19,9 C 20,0 C 18,9 C 84 % 1013,4 hPa 0,0 l/m 0 min 0 min 0 W/m 6,8 km/h (2 Bft) 95,74 %
24.07.2018 03:14 19,9 C 20,0 C 18,9 C 84 % 1013,3 hPa 0,0 l/m 0 min 0 min 0 W/m 6,8 km/h (2 Bft) 97,87 %
24.07.2018 03:16 20,0 C 20,0 C 18,9 C 84 % 1013,3 hPa 0,0 l/m 0 min 0 min 0 W/m 4,5 km/h (1 Bft) 95,65 %
24.07.2018 03:18 20,0 C 20,0 C 18,9 C 84 % 1013,3 hPa 0,0 l/m 0 min 0 min 0 W/m 4,5 km/h (1 Bft) 95,74 %
24.07.2018 03:20 20,1 C 20,0 C 18,9 C 84 % 1013,3 hPa 0,0 l/m 0 min 0 min 0 W/m 4,5 km/h (1 Bft) 95,74 %
24.07.2018 03:22 20,1 C 20,0 C 18,9 C 84 % 1013,3 hPa 0,0 l/m 0 min 0 min 0 W/m 2,3 km/h (1 Bft) 97,87 %
24.07.2018 03:24 20,1 C 20,0 C 18,9 C 84 % 1013,3 hPa 0,0 l/m 0 min 0 min 0 W/m 4,5 km/h (1 Bft) 97,87 %
24.07.2018 03:26 20,1 C 20,0 C 18,9 C 84 % 1013,3 hPa 0,0 l/m 0 min 0 min 0 W/m 4,5 km/h (1 Bft) 97,87 %
24.07.2018 03:28 20,1 C 20,0 C 18,9 C 84 % 1013,3 hPa 0,0 l/m 0 min 0 min 0 W/m 6,8 km/h (2 Bft) 100,00 %
24.07.2018 03:30 20,2 C 20,0 C 18,9 C 84 % 1013,3 hPa 0,0 l/m 0 min 0 min 0 W/m 4,5 km/h (1 Bft) 100,00 %
24.07.2018 03:32 20,2 C 20,0 C 18,9 C 83 % 1013,3 hPa 0,0 l/m 0 min 0 min 0 W/m 6,8 km/h (2 Bft) 100,00 %
24.07.2018 03:34 20,2 C 20,0 C 18,9 C 83 % 1013,3 hPa 0,0 l/m 0 min 0 min 0 W/m 6,8 km/h (2 Bft) 100,00 %
24.07.2018 03:36 20,2 C 20,0 C 18,9 C 83 % 1013,3 hPa 0,0 l/m 0 min 0 min 0 W/m 4,5 km/h (1 Bft) 100,00 %
24.07.2018 03:38 20,2 C 20,0 C 18,9 C 83 % 1013,3 hPa 0,0 l/m 0 min 0 min 0 W/m 4,5 km/h (1 Bft) 100,00 %
24.07.2018 03:40 20,3 C 20,0 C 18,9 C 83 % 1013,2 hPa 0,0 l/m 0 min 0 min 0 W/m 2,3 km/h (1 Bft) 100,00 %
24.07.2018 03:42 20,3 C 20,0 C 18,9 C 83 % 1013,3 hPa 0,0 l/m 0 min 0 min 0 W/m 4,5 km/h (1 Bft) 100,00 %
24.07.2018 03:44 20,3 C 20,0 C 18,9 C 83 % 1013,3 hPa 0,0 l/m 0 min 0 min 0 W/m 0,0 km/h (0 Bft) 100,00 %
24.07.2018 03:46 20,3 C 19,4 C 18,9 C 83 % 1013,3 hPa 0,0 l/m 0 min 0 min 0 W/m 0,0 km/h (0 Bft) 97,87 %
24.07.2018 03:48 20,3 C 19,4 C 18,9 C 83 % 1013,3 hPa 0,0 l/m 0 min 0 min 0 W/m 0,0 km/h (0 Bft) 97,87 %
24.07.2018 03:50 20,3 C 19,4 C 18,9 C 83 % 1013,2 hPa 0,0 l/m 0 min 0 min 0 W/m 0,0 km/h (0 Bft) 97,87 %
24.07.2018 03:52 20,3 C 19,4 C 18,3 C 83 % 1013,3 hPa 0,0 l/m 0 min 0 min 0 W/m 0,0 km/h (0 Bft) 97,87 %
24.07.2018 03:54 20,3 C 19,4 C 18,3 C 83 % 1013,3 hPa 0,0 l/m 0 min 0 min 0 W/m 0,0 km/h (0 Bft) 95,65 %
24.07.2018 03:56 20,3 C 19,4 C 18,3 C 83 % 1013,3 hPa 0,0 l/m 0 min 0 min 0 W/m 0,0 km/h (0 Bft) 95,74 %
24.07.2018 03:58 20,3 C 19,4 C 18,3 C 83 % 1013,2 hPa 0,0 l/m 0 min 0 min 0 W/m 0,0 km/h (0 Bft) 97,87 %
24.07.2018 04:00 20,3 C 19,4 C 18,3 C 83 % 1013,3 hPa 0,0 l/m 0 min 0 min 0 W/m 0,0 km/h (0 Bft) 97,87 %
24.07.2018 04:02 20,3 C 19,4 C 18,3 C 83 % 1013,3 hPa 0,0 l/m 0 min 0 min 0 W/m 0,0 km/h (0 Bft) 100,00 %
24.07.2018 04:04 20,3 C 18,9 C 18,3 C 83 % 1013,2 hPa 0,0 l/m 0 min 0 min 0 W/m 0,0 km/h (0 Bft) 97,87 %
24.07.2018 04:06 20,3 C 18,9 C 18,3 C 83 % 1013,2 hPa 0,0 l/m 0 min 0 min 0 W/m 0,0 km/h (0 Bft) 98,11 %
24.07.2018 04:08 20,2 C 18,9 C 18,3 C 83 % 1013,2 hPa 0,0 l/m 0 min 0 min 0 W/m 0,0 km/h (0 Bft) 97,87 %
24.07.2018 04:10 20,2 C 18,9 C 18,3 C 83 % 1013,2 hPa 0,0 l/m 0 min 0 min 0 W/m 0,0 km/h (0 Bft) 97,87 %
24.07.2018 04:12 20,2 C 18,9 C 18,3 C 83 % 1013,1 hPa 0,0 l/m 0 min 0 min 0 W/m 0,0 km/h (0 Bft) 97,87 %
24.07.2018 04:14 20,2 C 18,9 C 18,3 C 83 % 1013,1 hPa 0,0 l/m 0 min 0 min 0 W/m 2,3 km/h (1 Bft) 97,87 %
24.07.2018 04:16 20,2 C 18,9 C 18,3 C 83 % 1013,2 hPa 0,0 l/m 0 min 0 min 0 W/m 2,3 km/h (1 Bft) 97,83 %
24.07.2018 04:18 20,2 C 19,4 C 18,3 C 83 % 1013,2 hPa 0,0 l/m 0 min 0 min 0 W/m 4,5 km/h (1 Bft) 97,87 %
24.07.2018 04:20 20,2 C 19,4 C 18,3 C 83 % 1013,1 hPa 0,0 l/m 0 min 0 min 0 W/m 4,5 km/h (1 Bft) 97,87 %
24.07.2018 04:22 20,2 C 19,4 C 18,3 C 83 % 1013,1 hPa 0,0 l/m 0 min 0 min 0 W/m 2,3 km/h (1 Bft) 97,87 %
24.07.2018 04:24 20,1 C 19,4 C 18,3 C 83 % 1013,1 hPa 0,0 l/m 0 min 0 min 0 W/m 0,0 km/h (0 Bft) 97,87 %
24.07.2018 04:26 20,1 C 19,4 C 18,3 C 83 % 1013,1 hPa 0,0 l/m 0 min 0 min 0 W/m 2,3 km/h (1 Bft) 91,30 %
24.07.2018 04:28 20,1 C 19,4 C 18,3 C 83 % 1013,1 hPa 0,0 l/m 0 min 0 min 0 W/m 2,3 km/h (1 Bft) 97,87 %
24.07.2018 04:30 20,1 C 19,4 C 18,3 C 84 % 1013,1 hPa 0,0 l/m 0 min 0 min 0 W/m 2,3 km/h (1 Bft) 95,74 %
24.07.2018 04:32 20,1 C 19,4 C 18,3 C 84 % 1013,1 hPa 0,0 l/m 0 min 0 min 0 W/m 4,5 km/h (1 Bft) 97,87 %
24.07.2018 04:34 20,1 C 19,4 C 18,3 C 84 % 1013,1 hPa 0,0 l/m 0 min 0 min 0 W/m 2,3 km/h (1 Bft) 95,74 %
24.07.2018 04:36 20,1 C 19,4 C 18,3 C 84 % 1013,1 hPa 0,0 l/m 0 min 0 min 0 W/m 4,5 km/h (1 Bft) 95,74 %
24.07.2018 04:38 20,1 C 19,4 C 18,3 C 84 % 1013,1 hPa 0,0 l/m 0 min 0 min 0 W/m 0,0 km/h (0 Bft) 95,74 %
24.07.2018 04:40 20,1 C 19,4 C 18,3 C 84 % 1013,1 hPa 0,0 l/m 0 min 0 min 0 W/m 0,0 km/h (0 Bft) 93,48 %
24.07.2018 04:42 20,1 C 19,4 C 18,3 C 84 % 1013,2 hPa 0,0 l/m 0 min 0 min 0 W/m 2,3 km/h (1 Bft) 95,74 %
24.07.2018 04:44 20,1 C 19,4 C 18,3 C 84 % 1013,1 hPa 0,0 l/m 0 min 0 min 0 W/m 2,3 km/h (1 Bft) 97,87 %
24.07.2018 04:46 20,0 C 19,4 C 18,3 C 84 % 1013,2 hPa 0,0 l/m 0 min 0 min 0 W/m 2,3 km/h (1 Bft) 97,87 %
24.07.2018 04:48 20,0 C 19,4 C 18,3 C 84 % 1013,1 hPa 0,0 l/m 0 min 0 min 0 W/m 2,3 km/h (1 Bft) 95,74 %
24.07.2018 04:50 20,0 C 19,4 C 18,3 C 84 % 1013,2 hPa 0,0 l/m 0 min 0 min 0 W/m 2,3 km/h (1 Bft) 95,65 %
24.07.2018 04:52 20,0 C 19,4 C 18,3 C 84 % 1013,1 hPa 0,0 l/m 0 min 0 min 0 W/m 2,3 km/h (1 Bft) 97,87 %
24.07.2018 04:54 20,0 C 19,4 C 18,3 C 84 % 1013,1 hPa 0,0 l/m 0 min 0 min 0 W/m 0,0 km/h (0 Bft) 97,87 %
24.07.2018 04:56 20,0 C 18,9 C 18,3 C 84 % 1013,1 hPa 0,0 l/m 0 min 0 min 0 W/m 0,0 km/h (0 Bft) 97,87 %
24.07.2018 04:58 19,9 C 19,4 C 18,3 C 84 % 1013,2 hPa 0,0 l/m 0 min 0 min 0 W/m 2,3 km/h (1 Bft) 95,74 %
24.07.2018 05:00 19,9 C 18,9 C 18,3 C 84 % 1013,2 hPa 0,0 l/m 0 min 0 min 0 W/m 2,3 km/h (1 Bft) 95,74 %
24.07.2018 05:02 19,9 C 19,4 C 18,3 C 84 % 1013,2 hPa 0,0 l/m 0 min 0 min 0 W/m 4,5 km/h (1 Bft) 95,83 %
24.07.2018 05:04 19,9 C 19,4 C 18,3 C 85 % 1013,2 hPa 0,0 l/m 0 min 0 min 0 W/m 4,5 km/h (1 Bft) 97,87 %
24.07.2018 05:06 19,9 C 18,9 C 18,3 C 85 % 1013,2 hPa 0,0 l/m 0 min 0 min 0 W/m 2,3 km/h (1 Bft) 94,87 %
24.07.2018 05:08 19,9 C 18,9 C 18,3 C 85 % 1013,2 hPa 0,0 l/m 0 min 0 min 0 W/m 0,0 km/h (0 Bft) 95,74 %
24.07.2018 05:10 19,9 C 18,9 C 18,3 C 85 % 1013,2 hPa 0,0 l/m 0 min 0 min 0 W/m 0,0 km/h (0 Bft) 97,87 %
24.07.2018 05:12 19,9 C 18,9 C 18,3 C 85 % 1013,2 hPa 0,0 l/m 0 min 0 min 0 W/m 0,0 km/h (0 Bft) 95,74 %
24.07.2018 05:14 19,9 C 18,9 C 18,3 C 85 % 1013,2 hPa 0,0 l/m 0 min 0 min 0 W/m 0,0 km/h (0 Bft) 97,87 %
24.07.2018 05:16 19,9 C 18,9 C 18,3 C 85 % 1013,2 hPa 0,0 l/m 0 min 0 min 0 W/m 0,0 km/h (0 Bft) 95,65 %
24.07.2018 05:18 19,9 C 18,9 C 18,3 C 85 % 1013,2 hPa 0,0 l/m 0 min 0 min 0 W/m 0,0 km/h (0 Bft) 93,62 %
24.07.2018 05:20 19,9 C 18,9 C 18,3 C 85 % 1013,2 hPa 0,0 l/m 0 min 0 min 0 W/m 0,0 km/h (0 Bft) 97,87 %
24.07.2018 05:22 19,9 C 18,9 C 18,3 C 85 % 1013,2 hPa 0,0 l/m 0 min 0 min 0 W/m 2,3 km/h (1 Bft) 97,87 %
24.07.2018 05:24 19,8 C 18,9 C 18,3 C 85 % 1013,2 hPa 0,0 l/m 0 min 0 min 0 W/m 4,5 km/h (1 Bft) 100,00 %
24.07.2018 05:26 19,8 C 18,9 C 18,3 C 85 % 1013,1 hPa 0,0 l/m 0 min 0 min 0 W/m 2,3 km/h (1 Bft) 97,87 %
24.07.2018 05:28 19,8 C 18,9 C 18,3 C 85 % 1013,2 hPa 0,0 l/m 0 min 0 min 0 W/m 2,3 km/h (1 Bft) 97,83 %
24.07.2018 05:30 19,8 C 18,9 C 18,3 C 85 % 1013,2 hPa 0,0 l/m 0 min 0 min 0 W/m 4,5 km/h (1 Bft) 97,87 %
24.07.2018 05:32 19,8 C 18,9 C 18,3 C 85 % 1013,2 hPa 0,0 l/m 0 min 0 min 0 W/m 4,5 km/h (1 Bft) 93,88 %
24.07.2018 05:34 19,8 C 18,9 C 18,3 C 85 % 1013,2 hPa 0,0 l/m 0 min 0 min 0 W/m 0,0 km/h (0 Bft) 97,87 %
24.07.2018 05:35 19,8 C 18,9 C 18,3 C 85 % 1013,2 hPa 0,0 l/m 0 min 0 min 0 W/m 4,5 km/h (1 Bft) 100,00 %
24.07.2018 05:40 19,7 C 18,9 C 18,3 C 85 % 1013,1 hPa 0,0 l/m 0 min 0 min 0 W/m 0,0 km/h (0 Bft) 86,96 %
24.07.2018 05:42 19,7 C 18,9 C 18,3 C 85 % 1013,2 hPa 0,0 l/m 0 min 0 min 0 W/m 4,5 km/h (1 Bft) 94,00 %
24.07.2018 05:44 19,7 C 18,9 C 18,3 C 85 % 1013,2 hPa 0,0 l/m 0 min 0 min 1 W/m 2,3 km/h (1 Bft) 97,92 %
24.07.2018 05:46 19,7 C 18,9 C 18,3 C 86 % 1013,1 hPa 0,0 l/m 0 min 0 min 5 W/m 2,3 km/h (1 Bft) 97,92 %
24.07.2018 05:48 19,7 C 18,9 C 17,8 C 86 % 1013,1 hPa 0,0 l/m 0 min 0 min 5 W/m 2,3 km/h (1 Bft) 97,87 %
24.07.2018 05:50 19,7 C 18,9 C 17,8 C 85 % 1013,2 hPa 0,0 l/m 0 min 0 min 5 W/m 0,0 km/h (0 Bft) 97,83 %
24.07.2018 05:52 19,7 C 18,3 C 17,8 C 85 % 1013,2 hPa 0,0 l/m 0 min 0 min 6 W/m 0,0 km/h (0 Bft) 97,87 %
24.07.2018 05:54 19,7 C 18,3 C 17,8 C 85 % 1013,3 hPa 0,0 l/m 0 min 0 min 7 W/m 0,0 km/h (0 Bft) 97,87 %
24.07.2018 05:56 19,6 C 18,3 C 17,8 C 85 % 1013,2 hPa 0,0 l/m 0 min 0 min 7 W/m 0,0 km/h (0 Bft) 94,29 %
24.07.2018 05:58 19,6 C 18,3 C 17,8 C 85 % 1013,2 hPa 0,0 l/m 0 min 0 min 9 W/m 0,0 km/h (0 Bft) 97,87 %
24.07.2018 06:00 19,6 C 18,3 C 17,8 C 85 % 1013,2 hPa 0,0 l/m 0 min 0 min 9 W/m 0,0 km/h (0 Bft) 97,87 %
24.07.2018 06:02 19,6 C 18,3 C 17,8 C 85 % 1013,3 hPa 0,0 l/m 0 min 0 min 10 W/m 0,0 km/h (0 Bft) 97,87 %
24.07.2018 06:04 19,6 C 18,3 C 17,8 C 85 % 1013,3 hPa 0,0 l/m 0 min 0 min 11 W/m 0,0 km/h (0 Bft) 95,65 %
24.07.2018 06:08 19,5 C 18,3 C 17,8 C 85 % 1013,3 hPa 0,0 l/m 0 min 0 min 12 W/m 0,0 km/h (0 Bft) 97,09 %
24.07.2018 06:10 19,5 C 18,3 C 17,8 C 85 % 1013,3 hPa 0,0 l/m 0 min 0 min 14 W/m 0,0 km/h (0 Bft) 97,96 %
24.07.2018 06:12 19,5 C 18,3 C 17,8 C 85 % 1013,2 hPa 0,0 l/m 0 min 0 min 14 W/m 0,0 km/h (0 Bft) 97,22 %
24.07.2018 06:14 19,4 C 18,3 C 17,8 C 86 % 1013,2 hPa 0,0 l/m 0 min 0 min 16 W/m 0,0 km/h (0 Bft) 100,00 %
24.07.2018 06:16 19,4 C 18,3 C 17,8 C 86 % 1013,2 hPa 0,0 l/m 0 min 0 min 17 W/m 0,0 km/h (0 Bft) 100,00 %
24.07.2018 06:18 19,4 C 18,3 C 17,8 C 86 % 1013,2 hPa 0,0 l/m 0 min 0 min 18 W/m 0,0 km/h (0 Bft) 100,00 %
24.07.2018 06:20 19,4 C 18,3 C 17,8 C 86 % 1013,3 hPa 0,0 l/m 0 min 0 min 19 W/m 4,5 km/h (1 Bft) 100,00 %
24.07.2018 06:22 19,3 C 18,3 C 17,8 C 86 % 1013,3 hPa 0,0 l/m 0 min 0 min 19 W/m 2,3 km/h (1 Bft) 100,00 %
24.07.2018 06:24 19,3 C 18,3 C 17,8 C 86 % 1013,2 hPa 0,0 l/m 0 min 0 min 20 W/m 2,3 km/h (1 Bft) 100,00 %
24.07.2018 06:26 19,3 C 18,9 C 17,8 C 86 % 1013,2 hPa 0,0 l/m 0 min 0 min 21 W/m 4,5 km/h (1 Bft) 100,00 %
24.07.2018 06:28 19,3 C 18,9 C 17,8 C 86 % 1013,2 hPa 0,0 l/m 0 min 0 min 23 W/m 0,0 km/h (0 Bft) 100,00 %
24.07.2018 06:30 19,3 C 18,9 C 17,8 C 86 % 1013,2 hPa 0,0 l/m 0 min 0 min 23 W/m 2,3 km/h (1 Bft) 100,00 %
24.07.2018 06:32 19,3 C 18,9 C 17,8 C 86 % 1013,2 hPa 0,0 l/m 0 min 0 min 24 W/m 4,5 km/h (1 Bft) 100,00 %
24.07.2018 06:34 19,3 C 18,9 C 17,8 C 86 % 1013,2 hPa 0,0 l/m 0 min 0 min 25 W/m 2,3 km/h (1 Bft) 100,00 %
24.07.2018 06:36 19,2 C 18,9 C 17,8 C 86 % 1013,2 hPa 0,0 l/m 0 min 0 min 26 W/m 4,5 km/h (1 Bft) 98,00 %
24.07.2018 06:38 19,2 C 18,9 C 17,8 C 87 % 1013,2 hPa 0,0 l/m 0 min 0 min 26 W/m 4,5 km/h (1 Bft) 100,00 %
24.07.2018 06:40 19,2 C 18,9 C 17,8 C 87 % 1013,2 hPa 0,0 l/m 0 min 0 min 28 W/m 2,3 km/h (1 Bft) 100,00 %
24.07.2018 06:42 19,2 C 18,9 C 17,8 C 87 % 1013,2 hPa 0,0 l/m 0 min 0 min 28 W/m 2,3 km/h (1 Bft) 100,00 %
24.07.2018 06:44 19,2 C 18,9 C 17,8 C 87 % 1013,2 hPa 0,0 l/m 0 min 0 min 29 W/m 0,0 km/h (0 Bft) 100,00 %
24.07.2018 06:46 19,2 C 18,9 C 17,8 C 87 % 1013,2 hPa 0,0 l/m 0 min 0 min 30 W/m 0,0 km/h (0 Bft) 100,00 %
24.07.2018 06:48 19,2 C 18,9 C 17,8 C 87 % 1013,2 hPa 0,0 l/m 0 min 0 min 30 W/m 0,0 km/h (0 Bft) 100,00 %
24.07.2018 06:50 19,2 C 18,9 C 17,8 C 87 % 1013,2 hPa 0,0 l/m 0 min 0 min 32 W/m 0,0 km/h (0 Bft) 100,00 %
24.07.2018 06:52 19,2 C 18,9 C 17,8 C 87 % 1013,2 hPa 0,0 l/m 0 min 0 min 32 W/m 0,0 km/h (0 Bft) 100,00 %
24.07.2018 06:54 19,2 C 18,9 C 17,8 C 87 % 1013,2 hPa 0,0 l/m 0 min 0 min 33 W/m 0,0 km/h (0 Bft) 100,00 %
24.07.2018 06:56 19,2 C 18,9 C 17,8 C 87 % 1013,1 hPa 0,0 l/m 0 min 0 min 33 W/m 0,0 km/h (0 Bft) 100,00 %
24.07.2018 06:58 19,2 C 18,9 C 17,8 C 87 % 1013,1 hPa 0,0 l/m 0 min 0 min 35 W/m 6,8 km/h (2 Bft) 97,83 %
24.07.2018 07:00 19,2 C 18,9 C 17,8 C 87 % 1013,1 hPa 0,0 l/m 0 min 0 min 35 W/m 0,0 km/h (0 Bft) 100,00 %
24.07.2018 07:02 19,2 C 18,9 C 17,8 C 87 % 1013,2 hPa 0,0 l/m 0 min 0 min 36 W/m 2,3 km/h (1 Bft) 97,87 %
24.07.2018 07:04 19,2 C 18,9 C 17,8 C 87 % 1013,1 hPa 0,0 l/m 0 min 0 min 37 W/m 0,0 km/h (0 Bft) 100,00 %
24.07.2018 07:06 19,2 C 18,9 C 17,8 C 87 % 1013,2 hPa 0,0 l/m 0 min 0 min 38 W/m 2,3 km/h (1 Bft) 100,00 %
24.07.2018 07:08 19,2 C 18,9 C 17,8 C 87 % 1013,2 hPa 0,0 l/m 0 min 0 min 39 W/m 0,0 km/h (0 Bft) 100,00 %
24.07.2018 07:10 19,1 C 18,9 C 17,8 C 87 % 1013,2 hPa 0,0 l/m 0 min 0 min 39 W/m 2,3 km/h (1 Bft) 100,00 %
24.07.2018 07:12 19,2 C 18,9 C 17,8 C 88 % 1013,2 hPa 0,0 l/m 0 min 0 min 40 W/m 4,5 km/h (1 Bft) 100,00 %
24.07.2018 07:14 19,2 C 18,9 C 18,3 C 87 % 1013,2 hPa 0,0 l/m 0 min 0 min 40 W/m 2,3 km/h (1 Bft) 100,00 %
24.07.2018 07:16 19,2 C 19,4 C 18,3 C 88 % 1013,2 hPa 0,0 l/m 0 min 0 min 42 W/m 2,3 km/h (1 Bft) 95,74 %
24.07.2018 07:18 19,2 C 19,4 C 18,3 C 88 % 1013,2 hPa 0,0 l/m 0 min 0 min 42 W/m 2,3 km/h (1 Bft) 100,00 %
24.07.2018 07:20 19,2 C 19,4 C 18,3 C 88 % 1013,1 hPa 0,0 l/m 0 min 0 min 42 W/m 0,0 km/h (0 Bft) 100,00 %
24.07.2018 07:22 19,2 C 19,4 C 18,3 C 88 % 1013,1 hPa 0,0 l/m 0 min 0 min 44 W/m 2,3 km/h (1 Bft) 95,74 %
24.07.2018 07:24 19,2 C 19,4 C 18,3 C 88 % 1013,2 hPa 0,0 l/m 0 min 0 min 44 W/m 6,8 km/h (2 Bft) 95,74 %
24.07.2018 07:26 19,2 C 19,4 C 18,3 C 88 % 1013,2 hPa 0,0 l/m 0 min 0 min 46 W/m 2,3 km/h (1 Bft) 94,34 %
24.07.2018 07:28 19,2 C 19,4 C 18,3 C 88 % 1013,2 hPa 0,0 l/m 0 min 0 min 47 W/m 2,3 km/h (1 Bft) 95,74 %
24.07.2018 07:30 19,2 C 19,4 C 18,3 C 88 % 1013,2 hPa 0,0 l/m 0 min 0 min 47 W/m 6,8 km/h (2 Bft) 96,00 %
24.07.2018 07:32 19,2 C 19,4 C 18,3 C 88 % 1013,2 hPa 0,0 l/m 0 min 0 min 47 W/m 4,5 km/h (1 Bft) 93,88 %
24.07.2018 07:34 19,3 C 19,4 C 18,3 C 88 % 1013,2 hPa 0,0 l/m 0 min 0 min 49 W/m 4,5 km/h (1 Bft) 91,49 %
24.07.2018 07:36 19,3 C 20,0 C 18,3 C 88 % 1013,2 hPa 0,0 l/m 0 min 0 min 50 W/m 6,8 km/h (2 Bft) 97,14 %
24.07.2018 07:38 19,3 C 20,0 C 18,9 C 88 % 1013,3 hPa 0,0 l/m 0 min 0 min 51 W/m 6,8 km/h (2 Bft) 93,48 %
24.07.2018 07:40 19,3 C 20,0 C 18,9 C 88 % 1013,2 hPa 0,0 l/m 0 min 0 min 51 W/m 4,5 km/h (1 Bft) 95,74 %
24.07.2018 07:42 19,4 C 20,0 C 18,9 C 88 % 1013,2 hPa 0,0 l/m 0 min 0 min 52 W/m 4,5 km/h (1 Bft) 95,74 %
24.07.2018 07:44 19,4 C 20,0 C 18,9 C 88 % 1013,3 hPa 0,0 l/m 0 min 0 min 53 W/m 4,5 km/h (1 Bft) 96,30 %
24.07.2018 07:46 19,4 C 20,0 C 18,9 C 88 % 1013,3 hPa 0,0 l/m 0 min 0 min 53 W/m 4,5 km/h (1 Bft) 95,65 %
24.07.2018 07:48 19,5 C 20,0 C 18,9 C 88 % 1013,2 hPa 0,0 l/m 0 min 0 min 54 W/m 4,5 km/h (1 Bft) 95,74 %
24.07.2018 07:50 19,5 C 20,0 C 18,9 C 88 % 1013,2 hPa 0,0 l/m 0 min 0 min 54 W/m 2,3 km/h (1 Bft) 95,74 %
24.07.2018 07:52 19,6 C 20,0 C 18,9 C 88 % 1013,2 hPa 0,0 l/m 0 min 0 min 54 W/m 4,5 km/h (1 Bft) 92,16 %
24.07.2018 07:54 19,6 C 20,6 C 18,9 C 88 % 1013,1 hPa 0,0 l/m 0 min 0 min 55 W/m 6,8 km/h (2 Bft) 93,62 %
24.07.2018 07:56 19,6 C 20,6 C 18,9 C 88 % 1013,2 hPa 0,0 l/m 0 min 0 min 56 W/m 2,3 km/h (1 Bft) 95,65 %
24.07.2018 07:58 19,6 C 20,6 C 18,9 C 88 % 1013,2 hPa 0,0 l/m 0 min 0 min 58 W/m 0,0 km/h (0 Bft) 95,74 %
24.07.2018 08:00 19,7 C 20,6 C 18,9 C 88 % 1013,2 hPa 0,0 l/m 0 min 0 min 58 W/m 4,5 km/h (1 Bft) 95,83 %
24.07.2018 08:02 19,7 C 20,6 C 18,9 C 88 % 1013,2 hPa 0,0 l/m 0 min 0 min 59 W/m 6,8 km/h (2 Bft) 93,62 %
24.07.2018 08:04 19,8 C 20,6 C 19,4 C 88 % 1013,2 hPa 0,0 l/m 0 min 0 min 60 W/m 4,5 km/h (1 Bft) 91,49 %
24.07.2018 08:06 19,8 C 21,1 C 19,4 C 88 % 1013,2 hPa 0,0 l/m 0 min 0 min 61 W/m 4,5 km/h (1 Bft) 97,14 %
24.07.2018 08:08 19,8 C 21,1 C 19,4 C 88 % 1013,2 hPa 0,0 l/m 0 min 0 min 62 W/m 4,5 km/h (1 Bft) 95,74 %
24.07.2018 08:10 19,9 C 21,1 C 19,4 C 88 % 1013,2 hPa 0,0 l/m 0 min 0 min 63 W/m 6,8 km/h (2 Bft) 95,74 %
24.07.2018 08:12 19,9 C 21,1 C 19,4 C 88 % 1013,2 hPa 0,0 l/m 0 min 0 min 63 W/m 4,5 km/h (1 Bft) 91,49 %
24.07.2018 08:14 20,0 C 21,1 C 19,4 C 88 % 1013,3 hPa 0,0 l/m 0 min 0 min 65 W/m 4,5 km/h (1 Bft) 95,65 %
24.07.2018 08:16 20,1 C 21,1 C 19,4 C 87 % 1013,2 hPa 0,0 l/m 0 min 0 min 66 W/m 2,3 km/h (1 Bft) 95,74 %
24.07.2018 08:18 20,1 C 21,7 C 19,4 C 87 % 1013,3 hPa 0,0 l/m 0 min 0 min 68 W/m 2,3 km/h (1 Bft) 95,74 %
24.07.2018 08:20 20,2 C 21,7 C 19,4 C 87 % 1013,3 hPa 0,0 l/m 0 min 0 min 69 W/m 2,3 km/h (1 Bft) 97,87 %
24.07.2018 08:22 20,2 C 21,7 C 19,4 C 87 % 1013,2 hPa 0,0 l/m 0 min 0 min 70 W/m 4,5 km/h (1 Bft) 93,62 %
24.07.2018 08:24 20,3 C 21,7 C 19,4 C 87 % 1013,2 hPa 0,0 l/m 0 min 0 min 72 W/m 6,8 km/h (2 Bft) 95,74 %
24.07.2018 08:26 20,3 C 22,2 C 19,4 C 87 % 1013,3 hPa 0,0 l/m 0 min 0 min 74 W/m 6,8 km/h (2 Bft) 97,83 %
24.07.2018 08:28 20,4 C 22,2 C 20,0 C 87 % 1013,3 hPa 0,0 l/m 0 min 0 min 97 W/m 2,3 km/h (1 Bft) 97,87 %
24.07.2018 08:30 20,4 C 22,2 C 20,0 C 87 % 1013,4 hPa 0,0 l/m 2 min 0 min 223 W/m 6,8 km/h (2 Bft) 97,87 %
24.07.2018 08:32 20,6 C 22,2 C 20,0 C 86 % 1013,3 hPa 0,0 l/m 2 min 0 min 269 W/m 6,8 km/h (2 Bft) 98,11 %
24.07.2018 08:34 20,6 C 22,2 C 20,0 C 86 % 1013,3 hPa 0,0 l/m 2 min 0 min 273 W/m 4,5 km/h (1 Bft) 95,74 %
24.07.2018 08:36 20,7 C 22,8 C 20,0 C 86 % 1013,3 hPa 0,0 l/m 2 min 0 min 281 W/m 6,8 km/h (2 Bft) 97,92 %
24.07.2018 08:38 20,8 C 22,8 C 20,6 C 86 % 1013,2 hPa 0,0 l/m 2 min 0 min 287 W/m 9,0 km/h (2 Bft) 97,87 %
24.07.2018 08:40 20,9 C 22,8 C 20,6 C 85 % 1013,2 hPa 0,0 l/m 2 min 0 min 294 W/m 6,8 km/h (2 Bft) 98,00 %
24.07.2018 08:42 21,0 C 22,8 C 20,6 C 85 % 1013,2 hPa 0,0 l/m 2 min 0 min 298 W/m 6,8 km/h (2 Bft) 95,83 %
24.07.2018 08:44 21,0 C 22,8 C 20,6 C 85 % 1013,2 hPa 0,0 l/m 2 min 0 min 303 W/m 4,5 km/h (1 Bft) 97,87 %
24.07.2018 08:46 21,1 C 22,8 C 20,6 C 85 % 1013,2 hPa 0,0 l/m 2 min 0 min 308 W/m 4,5 km/h (1 Bft) 95,65 %
24.07.2018 08:48 21,2 C 23,3 C 20,6 C 84 % 1013,3 hPa 0,0 l/m 2 min 0 min 315 W/m 6,8 km/h (2 Bft) 97,87 %
24.07.2018 08:50 21,3 C 23,3 C 20,6 C 84 % 1013,3 hPa 0,0 l/m 2 min 0 min 319 W/m 2,3 km/h (1 Bft) 97,87 %
24.07.2018 08:52 21,3 C 23,3 C 20,6 C 84 % 1013,3 hPa 0,0 l/m 2 min 0 min 323 W/m 4,5 km/h (1 Bft) 100,00 %
24.07.2018 08:54 21,4 C 23,3 C 20,6 C 84 % 1013,2 hPa 0,0 l/m 2 min 0 min 328 W/m 6,8 km/h (2 Bft) 95,74 %
24.07.2018 08:56 21,5 C 23,3 C 21,1 C 84 % 1013,3 hPa 0,0 l/m 2 min 0 min 335 W/m 6,8 km/h (2 Bft) 95,74 %
24.07.2018 08:58 21,6 C 23,3 C 21,1 C 83 % 1013,3 hPa 0,0 l/m 2 min 0 min 340 W/m 4,5 km/h (1 Bft) 95,74 %
24.07.2018 09:00 21,7 C 23,9 C 21,1 C 83 % 1013,2 hPa 0,0 l/m 2 min 0 min 346 W/m 6,8 km/h (2 Bft) 97,83 %
24.07.2018 09:02 21,8 C 23,9 C 21,1 C 82 % 1013,2 hPa 0,0 l/m 2 min 0 min 351 W/m 6,8 km/h (2 Bft) 97,87 %
24.07.2018 09:04 21,9 C 23,9 C 21,1 C 82 % 1013,2 hPa 0,0 l/m 2 min 0 min 357 W/m 2,3 km/h (1 Bft) 100,00 %
24.07.2018 09:06 22,0 C 23,9 C 21,1 C 82 % 1013,2 hPa 0,0 l/m 2 min 0 min 362 W/m 4,5 km/h (1 Bft) 96,36 %
24.07.2018 09:08 22,1 C 23,9 C 21,1 C 82 % 1013,2 hPa 0,0 l/m 2 min 0 min 366 W/m 6,8 km/h (2 Bft) 100,00 %
24.07.2018 09:10 22,2 C 23,9 C 21,1 C 81 % 1013,2 hPa 0,0 l/m 2 min 0 min 373 W/m 9,0 km/h (2 Bft) 97,87 %
24.07.2018 09:12 22,3 C 23,9 C 21,7 C 81 % 1013,2 hPa 0,0 l/m 2 min 0 min 378 W/m 9,0 km/h (2 Bft) 100,00 %
24.07.2018 09:14 22,4 C 24,4 C 21,7 C 80 % 1013,1 hPa 0,0 l/m 2 min 0 min 382 W/m 6,8 km/h (2 Bft) 100,00 %
24.07.2018 09:16 22,6 C 24,4 C 21,7 C 79 % 1013,1 hPa 0,0 l/m 2 min 0 min 387 W/m 6,8 km/h (2 Bft) 100,00 %
24.07.2018 09:18 22,7 C 25,0 C 21,7 C 80 % 1013,1 hPa 0,0 l/m 2 min 0 min 393 W/m 4,5 km/h (1 Bft) 100,00 %
24.07.2018 09:20 22,7 C 25,0 C 21,7 C 80 % 1013,1 hPa 0,0 l/m 2 min 0 min 396 W/m 6,8 km/h (2 Bft) 100,00 %
24.07.2018 09:22 22,8 C 25,0 C 21,7 C 79 % 1013,1 hPa 0,0 l/m 2 min 0 min 400 W/m 4,5 km/h (1 Bft) 100,00 %
24.07.2018 09:24 22,9 C 25,0 C 21,7 C 79 % 1013,1 hPa 0,0 l/m 2 min 0 min 405 W/m 6,8 km/h (2 Bft) 100,00 %
24.07.2018 09:26 23,1 C 25,0 C 21,7 C 78 % 1013,2 hPa 0,0 l/m 2 min 0 min 411 W/m 6,8 km/h (2 Bft) 100,00 %
24.07.2018 09:28 23,2 C 25,0 C 22,2 C 78 % 1013,1 hPa 0,0 l/m 2 min 0 min 416 W/m 6,8 km/h (2 Bft) 100,00 %
24.07.2018 09:30 23,3 C 25,0 C 22,2 C 78 % 1013,0 hPa 0,0 l/m 2 min 0 min 421 W/m 4,5 km/h (1 Bft) 100,00 %
24.07.2018 09:32 23,4 C 25,0 C 22,2 C 78 % 1013,1 hPa 0,0 l/m 2 min 0 min 428 W/m 2,3 km/h (1 Bft) 100,00 %
24.07.2018 09:34 23,5 C 25,6 C 22,2 C 77 % 1013,0 hPa 0,0 l/m 2 min 0 min 434 W/m 6,8 km/h (2 Bft) 100,00 %
24.07.2018 09:36 23,6 C 25,6 C 22,2 C 77 % 1013,1 hPa 0,0 l/m 2 min 0 min 440 W/m 9,0 km/h (2 Bft) 97,87 %
24.07.2018 09:38 23,7 C 25,6 C 22,2 C 77 % 1013,1 hPa 0,0 l/m 2 min 0 min 445 W/m 6,8 km/h (2 Bft) 100,00 %
24.07.2018 09:40 23,8 C 25,6 C 22,2 C 76 % 1013,0 hPa 0,0 l/m 2 min 0 min 452 W/m 9,0 km/h (2 Bft) 100,00 %
24.07.2018 09:42 23,9 C 25,6 C 22,2 C 76 % 1013,0 hPa 0,0 l/m 2 min 0 min 457 W/m 6,8 km/h (2 Bft) 100,00 %
24.07.2018 09:44 24,0 C 26,1 C 22,8 C 75 % 1013,0 hPa 0,0 l/m 2 min 0 min 462 W/m 6,8 km/h (2 Bft) 100,00 %
24.07.2018 09:46 24,1 C 26,7 C 22,8 C 74 % 1013,0 hPa 0,0 l/m 2 min 0 min 466 W/m 6,8 km/h (2 Bft) 100,00 %
24.07.2018 09:48 24,2 C 26,1 C 22,8 C 73 % 1013,0 hPa 0,0 l/m 2 min 0 min 470 W/m 9,0 km/h (2 Bft) 100,00 %
24.07.2018 09:50 24,3 C 26,1 C 22,8 C 73 % 1013,0 hPa 0,0 l/m 2 min 0 min 476 W/m 6,8 km/h (2 Bft) 100,00 %
24.07.2018 09:52 24,4 C 26,1 C 22,8 C 73 % 1013,0 hPa 0,0 l/m 2 min 0 min 480 W/m 4,5 km/h (1 Bft) 100,00 %
24.07.2018 09:54 24,5 C 26,7 C 23,3 C 72 % 1013,0 hPa 0,0 l/m 2 min 0 min 487 W/m 6,8 km/h (2 Bft) 100,00 %
24.07.2018 09:56 24,6 C 27,2 C 22,8 C 72 % 1013,0 hPa 0,0 l/m 2 min 0 min 491 W/m 9,0 km/h (2 Bft) 97,87 %
24.07.2018 09:58 24,7 C 27,8 C 22,8 C 72 % 1013,0 hPa 0,0 l/m 2 min 0 min 495 W/m 4,5 km/h (1 Bft) 100,00 %
24.07.2018 10:00 24,8 C 27,2 C 22,8 C 72 % 1013,0 hPa 0,0 l/m 2 min 0 min 499 W/m 6,8 km/h (2 Bft) 97,83 %
24.07.2018 10:02 24,9 C 27,2 C 22,8 C 71 % 1013,0 hPa 0,0 l/m 2 min 0 min 504 W/m 4,5 km/h (1 Bft) 97,87 %
24.07.2018 10:04 24,9 C 27,2 C 23,3 C 70 % 1013,0 hPa 0,0 l/m 2 min 0 min 511 W/m 9,0 km/h (2 Bft) 97,87 %
24.07.2018 10:06 25,1 C 27,2 C 23,3 C 71 % 1012,9 hPa 0,0 l/m 2 min 0 min 515 W/m 9,0 km/h (2 Bft) 97,87 %
24.07.2018 10:08 25,1 C 27,2 C 23,3 C 70 % 1013,0 hPa 0,0 l/m 2 min 0 min 519 W/m 4,5 km/h (1 Bft) 95,74 %
24.07.2018 10:10 25,2 C 27,2 C 23,3 C 70 % 1012,9 hPa 0,0 l/m 2 min 0 min 523 W/m 9,0 km/h (2 Bft) 97,87 %
24.07.2018 10:12 25,3 C 27,2 C 23,3 C 69 % 1013,0 hPa 0,0 l/m 2 min 0 min 530 W/m 6,8 km/h (2 Bft) 97,83 %
24.07.2018 10:14 25,4 C 27,2 C 23,3 C 69 % 1012,9 hPa 0,0 l/m 2 min 0 min 536 W/m 6,8 km/h (2 Bft) 95,74 %
24.07.2018 10:16 25,6 C 27,2 C 23,3 C 68 % 1012,9 hPa 0,0 l/m 2 min 0 min 541 W/m 6,8 km/h (2 Bft) 97,87 %
24.07.2018 10:18 25,7 C 27,2 C 23,3 C 67 % 1012,9 hPa 0,0 l/m 2 min 0 min 543 W/m 9,0 km/h (2 Bft) 97,87 %
24.07.2018 10:20 25,8 C 27,2 C 23,9 C 68 % 1012,9 hPa 0,0 l/m 2 min 0 min 549 W/m 6,8 km/h (2 Bft) 95,74 %
24.07.2018 10:22 25,8 C 27,2 C 23,9 C 67 % 1012,9 hPa 0,0 l/m 2 min 0 min 554 W/m 9,0 km/h (2 Bft) 97,83 %
24.07.2018 10:24 25,9 C 27,8 C 23,9 C 67 % 1012,9 hPa 0,0 l/m 2 min 0 min 558 W/m 4,5 km/h (1 Bft) 97,87 %
24.07.2018 10:26 26,0 C 27,8 C 23,9 C 67 % 1012,9 hPa 0,0 l/m 2 min 0 min 565 W/m 6,8 km/h (2 Bft) 97,87 %
24.07.2018 10:28 26,1 C 27,8 C 23,9 C 67 % 1012,9 hPa 0,0 l/m 2 min 0 min 568 W/m 4,5 km/h (1 Bft) 97,87 %
24.07.2018 10:30 26,2 C 28,3 C 23,9 C 66 % 1012,9 hPa 0,0 l/m 2 min 0 min 574 W/m 9,0 km/h (2 Bft) 97,87 %
24.07.2018 10:32 26,3 C 28,3 C 23,9 C 64 % 1012,9 hPa 0,0 l/m 2 min 0 min 583 W/m 6,8 km/h (2 Bft) 96,23 %
24.07.2018 10:34 26,3 C 28,9 C 23,9 C 64 % 1012,9 hPa 0,0 l/m 2 min 0 min 591 W/m 6,8 km/h (2 Bft) 97,87 %
24.07.2018 10:36 26,4 C 29,4 C 23,9 C 63 % 1012,9 hPa 0,0 l/m 2 min 0 min 593 W/m 9,0 km/h (2 Bft) 95,83 %
24.07.2018 10:38 26,5 C 31,1 C 24,4 C 64 % 1012,9 hPa 0,0 l/m 2 min 0 min 594 W/m 4,5 km/h (1 Bft) 95,74 %
24.07.2018 10:40 26,6 C 32,8 C 24,4 C 64 % 1012,9 hPa 0,0 l/m 2 min 0 min 600 W/m 4,5 km/h (1 Bft) 95,74 %
24.07.2018 10:42 26,7 C 34,4 C 24,4 C 64 % 1012,9 hPa 0,0 l/m 2 min 0 min 608 W/m 4,5 km/h (1 Bft) 97,83 %
24.07.2018 10:44 26,8 C 34,4 C 24,4 C 62 % 1012,9 hPa 0,0 l/m 2 min 0 min 611 W/m 9,0 km/h (2 Bft) 97,87 %
24.07.2018 10:46 26,8 C 35,6 C 24,4 C 62 % 1012,9 hPa 0,0 l/m 2 min 0 min 613 W/m 4,5 km/h (1 Bft) 95,74 %
24.07.2018 10:48 27,0 C 36,1 C 24,4 C 62 % 1012,8 hPa 0,0 l/m 2 min 0 min 617 W/m 2,3 km/h (1 Bft) 96,00 %
24.07.2018 10:50 27,1 C 35,0 C 24,4 C 60 % 1012,8 hPa 0,0 l/m 2 min 0 min 622 W/m 4,5 km/h (1 Bft) 97,87 %
24.07.2018 10:52 27,2 C 35,6 C 24,4 C 59 % 1012,8 hPa 0,0 l/m 2 min 0 min 629 W/m 6,8 km/h (2 Bft) 95,83 %
24.07.2018 10:54 27,3 C 34,4 C 24,4 C 57 % 1012,7 hPa 0,0 l/m 2 min 0 min 631 W/m 11,3 km/h (2 Bft) 95,65 %
24.07.2018 10:56 27,6 C 35,0 C 24,4 C 59 % 1012,7 hPa 0,0 l/m 2 min 0 min 631 W/m 6,8 km/h (2 Bft) 97,87 %
24.07.2018 10:58 27,7 C 35,6 C 24,4 C 58 % 1012,8 hPa 0,0 l/m 2 min 0 min 634 W/m 4,5 km/h (1 Bft) 97,87 %
24.07.2018 11:00 27,9 C 37,2 C 24,4 C 60 % 1012,7 hPa 0,0 l/m 2 min 0 min 641 W/m 2,3 km/h (1 Bft) 97,87 %
24.07.2018 11:02 28,1 C 36,7 C 24,4 C 57 % 1012,8 hPa 0,0 l/m 2 min 0 min 646 W/m 9,0 km/h (2 Bft) 97,14 %
24.07.2018 11:04 28,2 C 36,7 C 24,4 C 56 % 1012,8 hPa 0,0 l/m 2 min 0 min 649 W/m 9,0 km/h (2 Bft) 95,74 %
24.07.2018 11:06 28,4 C 37,8 C 24,4 C 58 % 1012,9 hPa 0,0 l/m 2 min 0 min 658 W/m 4,5 km/h (1 Bft) 97,87 %
24.07.2018 11:08 28,6 C 37,8 C 25,0 C 57 % 1012,8 hPa 0,0 l/m 2 min 0 min 663 W/m 6,8 km/h (2 Bft) 93,62 %
24.07.2018 11:10 28,8 C 37,8 C 25,0 C 58 % 1012,7 hPa 0,0 l/m 2 min 0 min 664 W/m 6,8 km/h (2 Bft) 98,15 %
24.07.2018 11:12 28,9 C 37,2 C 25,0 C 56 % 1012,7 hPa 0,0 l/m 2 min 0 min 666 W/m 6,8 km/h (2 Bft) 96,00 %
24.07.2018 11:14 29,1 C 36,7 C 25,6 C 54 % 1012,6 hPa 0,0 l/m 2 min 0 min 669 W/m 11,3 km/h (2 Bft) 97,83 %
24.07.2018 11:16 29,3 C 36,7 C 25,0 C 55 % 1012,6 hPa 0,0 l/m 2 min 0 min 670 W/m 6,8 km/h (2 Bft) 95,74 %
24.07.2018 11:18 29,5 C 36,7 C 25,0 C 53 % 1012,6 hPa 0,0 l/m 2 min 0 min 669 W/m 9,0 km/h (2 Bft) 95,74 %
24.07.2018 11:20 29,7 C 37,8 C 25,0 C 55 % 1012,7 hPa 0,0 l/m 2 min 0 min 673 W/m 4,5 km/h (1 Bft) 97,87 %
24.07.2018 11:22 29,8 C 38,3 C 25,0 C 53 % 1012,6 hPa 0,0 l/m 2 min 0 min 676 W/m 6,8 km/h (2 Bft) 93,62 %
24.07.2018 11:24 29,9 C 38,9 C 24,4 C 55 % 1012,6 hPa 0,0 l/m 2 min 0 min 669 W/m 6,8 km/h (2 Bft) 95,74 %
24.07.2018 11:26 30,1 C 38,3 C 25,0 C 54 % 1012,6 hPa 0,0 l/m 2 min 0 min 666 W/m 2,3 km/h (1 Bft) 95,65 %
24.07.2018 11:28 30,2 C 39,4 C 25,0 C 56 % 1012,7 hPa 0,0 l/m 2 min 0 min 676 W/m 4,5 km/h (1 Bft) 95,74 %
24.07.2018 11:30 30,3 C 38,3 C 25,6 C 52 % 1012,7 hPa 0,0 l/m 2 min 0 min 681 W/m 6,8 km/h (2 Bft) 97,96 %
24.07.2018 11:32 30,4 C 37,2 C 25,6 C 50 % 1012,7 hPa 0,0 l/m 2 min 0 min 684 W/m 9,0 km/h (2 Bft) 91,49 %
24.07.2018 11:34 30,5 C 37,8 C 25,6 C 52 % 1012,7 hPa 0,0 l/m 2 min 0 min 683 W/m 4,5 km/h (1 Bft) 95,74 %
24.07.2018 11:36 30,6 C 37,2 C 25,6 C 53 % 1012,7 hPa 0,0 l/m 2 min 0 min 689 W/m 9,0 km/h (2 Bft) 95,74 %
24.07.2018 11:38 30,7 C 36,7 C 26,1 C 51 % 1012,6 hPa 0,0 l/m 2 min 0 min 699 W/m 11,3 km/h (2 Bft) 95,74 %
24.07.2018 11:40 30,8 C 36,7 C 26,1 C 50 % 1012,6 hPa 0,0 l/m 2 min 0 min 703 W/m 6,8 km/h (2 Bft) 95,74 %
24.07.2018 11:42 30,9 C 37,8 C 26,7 C 50 % 1012,7 hPa 0,0 l/m 2 min 0 min 708 W/m 6,8 km/h (2 Bft) 97,83 %
24.07.2018 11:44 31,1 C 38,9 C 26,1 C 51 % 1012,7 hPa 0,0 l/m 2 min 0 min 713 W/m 6,8 km/h (2 Bft) 97,87 %
24.07.2018 11:46 31,1 C 38,3 C 26,1 C 50 % 1012,6 hPa 0,0 l/m 2 min 0 min 719 W/m 9,0 km/h (2 Bft) 97,87 %
24.07.2018 11:48 31,2 C 39,4 C 26,7 C 50 % 1012,6 hPa 0,0 l/m 2 min 0 min 713 W/m 6,8 km/h (2 Bft) 95,74 %
24.07.2018 11:50 31,3 C 40,6 C 26,1 C 51 % 1012,6 hPa 0,0 l/m 2 min 0 min 710 W/m 6,8 km/h (2 Bft) 97,87 %
24.07.2018 11:52 31,4 C 40,0 C 26,1 C 50 % 1012,5 hPa 0,0 l/m 2 min 0 min 711 W/m 4,5 km/h (1 Bft) 97,83 %
24.07.2018 11:54 31,4 C 38,9 C 26,7 C 49 % 1012,6 hPa 0,0 l/m 2 min 0 min 717 W/m 9,0 km/h (2 Bft) 97,22 %
24.07.2018 11:56 31,5 C 37,8 C 26,1 C 48 % 1012,5 hPa 0,0 l/m 2 min 0 min 722 W/m 11,3 km/h (2 Bft) 97,83 %
24.07.2018 11:58 31,6 C 39,4 C 26,1 C 49 % 1012,5 hPa 0,0 l/m 2 min 0 min 722 W/m 6,8 km/h (2 Bft) 97,87 %
24.07.2018 12:00 31,7 C 40,0 C 26,7 C 50 % 1012,6 hPa 0,0 l/m 2 min 0 min 728 W/m 9,0 km/h (2 Bft) 97,87 %
24.07.2018 12:02 31,8 C 40,6 C 26,7 C 49 % 1012,5 hPa 0,0 l/m 2 min 0 min 739 W/m 6,8 km/h (2 Bft) 100,00 %
24.07.2018 12:04 31,9 C 41,1 C 26,7 C 51 % 1012,4 hPa 0,0 l/m 2 min 0 min 744 W/m 4,5 km/h (1 Bft) 100,00 %
24.07.2018 12:08 32,0 C 40,6 C 26,7 C 48 % 1012,4 hPa 0,0 l/m 4 min 0 min 738 W/m 9,0 km/h (2 Bft) 97,85 %
24.07.2018 12:10 32,1 C 38,9 C 27,2 C 47 % 1012,3 hPa 0,0 l/m 2 min 0 min 750 W/m 9,0 km/h (2 Bft) 100,00 %
24.07.2018 12:12 32,1 C 39,4 C 27,2 C 48 % 1012,3 hPa 0,0 l/m 2 min 0 min 749 W/m 6,8 km/h (2 Bft) 100,00 %
24.07.2018 12:14 32,2 C 38,9 C 27,2 C 47 % 1012,3 hPa 0,0 l/m 2 min 0 min 743 W/m 9,0 km/h (2 Bft) 100,00 %
24.07.2018 12:16 32,2 C 39,4 C 27,2 C 48 % 1012,3 hPa 0,0 l/m 2 min 0 min 754 W/m 9,0 km/h (2 Bft) 100,00 %
24.07.2018 12:18 32,2 C 38,3 C 27,2 C 47 % 1012,3 hPa 0,0 l/m 2 min 0 min 754 W/m 11,3 km/h (2 Bft) 97,22 %
24.07.2018 12:20 32,3 C 38,3 C 27,2 C 46 % 1012,3 hPa 0,0 l/m 2 min 0 min 736 W/m 11,3 km/h (2 Bft) 100,00 %
24.07.2018 12:22 32,3 C 36,7 C 27,2 C 45 % 1012,3 hPa 0,0 l/m 2 min 0 min 735 W/m 13,5 km/h (3 Bft) 100,00 %
24.07.2018 12:24 32,3 C 37,2 C 27,2 C 47 % 1012,3 hPa 0,0 l/m 2 min 0 min 748 W/m 9,0 km/h (2 Bft) 100,00 %
24.07.2018 12:26 32,4 C 37,2 C 27,2 C 45 % 1012,3 hPa 0,0 l/m 2 min 0 min 747 W/m 11,3 km/h (2 Bft) 100,00 %
24.07.2018 12:28 32,4 C 38,9 C 27,2 C 48 % 1012,3 hPa 0,0 l/m 2 min 0 min 747 W/m 4,5 km/h (1 Bft) 100,00 %
24.07.2018 12:30 32,4 C 38,3 C 27,2 C 46 % 1012,3 hPa 0,0 l/m 2 min 0 min 747 W/m 9,0 km/h (2 Bft) 98,18 %
24.07.2018 12:32 32,4 C 38,9 C 27,2 C 45 % 1012,3 hPa 0,0 l/m 0 min 0 min 355 W/m 4,5 km/h (1 Bft) 100,00 %
24.07.2018 12:34 32,4 C 38,9 C 27,2 C 46 % 1012,2 hPa 0,0 l/m 0 min 0 min 118 W/m 6,8 km/h (2 Bft) 100,00 %
24.07.2018 12:36 32,5 C 38,9 C 27,2 C 47 % 1012,3 hPa 0,0 l/m 0 min 0 min 118 W/m 6,8 km/h (2 Bft) 100,00 %
24.07.2018 12:38 32,5 C 39,4 C 27,2 C 47 % 1012,3 hPa 0,0 l/m 0 min 0 min 119 W/m 9,0 km/h (2 Bft) 100,00 %
24.07.2018 12:40 32,5 C 39,4 C 27,2 C 45 % 1012,2 hPa 0,0 l/m 0 min 0 min 134 W/m 9,0 km/h (2 Bft) 100,00 %
24.07.2018 12:42 32,6 C 39,4 C 27,2 C 46 % 1012,2 hPa 0,0 l/m 0 min 0 min 172 W/m 6,8 km/h (2 Bft) 100,00 %
24.07.2018 12:44 32,6 C 40,0 C 27,2 C 45 % 1012,2 hPa 0,0 l/m 0 min 0 min 211 W/m 6,8 km/h (2 Bft) 100,00 %
24.07.2018 12:46 32,6 C 38,9 C 27,8 C 46 % 1012,1 hPa 0,0 l/m 2 min 0 min 803 W/m 9,0 km/h (2 Bft) 100,00 %
24.07.2018 12:48 32,6 C 37,8 C 27,8 C 43 % 1012,1 hPa 0,0 l/m 2 min 0 min 803 W/m 11,3 km/h (2 Bft) 100,00 %
24.07.2018 12:50 32,7 C 39,4 C 27,8 C 45 % 1012,1 hPa 0,0 l/m 2 min 0 min 805 W/m 6,8 km/h (2 Bft) 100,00 %
24.07.2018 12:52 32,7 C 38,9 C 27,8 C 44 % 1012,2 hPa 0,0 l/m 2 min 0 min 693 W/m 6,8 km/h (2 Bft) 100,00 %
24.07.2018 12:54 32,7 C 37,8 C 28,3 C 43 % 1012,2 hPa 0,0 l/m 0 min 0 min 359 W/m 9,0 km/h (2 Bft) 100,00 %
24.07.2018 12:56 32,7 C 38,9 C 27,8 C 45 % 1012,1 hPa 0,0 l/m 2 min 0 min 596 W/m 6,8 km/h (2 Bft) 100,00 %
24.07.2018 12:58 32,8 C 37,8 C 28,3 C 44 % 1012,1 hPa 0,0 l/m 2 min 0 min 810 W/m 4,5 km/h (1 Bft) 97,22 %
24.07.2018 13:00 32,8 C 38,3 C 28,3 C 44 % 1012,1 hPa 0,0 l/m 2 min 0 min 814 W/m 6,8 km/h (2 Bft) 97,87 %
24.07.2018 13:02 32,8 C 38,9 C 28,3 C 44 % 1012,1 hPa 0,0 l/m 2 min 0 min 820 W/m 9,0 km/h (2 Bft) 97,87 %
24.07.2018 13:04 32,9 C 40,0 C 28,3 C 45 % 1012,1 hPa 0,0 l/m 2 min 0 min 828 W/m 4,5 km/h (1 Bft) 95,74 %
24.07.2018 13:06 32,8 C 40,6 C 28,3 C 44 % 1012,1 hPa 0,0 l/m 2 min 0 min 832 W/m 9,0 km/h (2 Bft) 96,36 %
24.07.2018 13:08 32,8 C 41,1 C 27,8 C 45 % 1012,0 hPa 0,0 l/m 2 min 0 min 833 W/m 4,5 km/h (1 Bft) 98,00 %
24.07.2018 13:10 32,8 C 41,1 C 27,8 C 45 % 1012,0 hPa 0,0 l/m 2 min 0 min 832 W/m 6,8 km/h (2 Bft) 97,83 %
24.07.2018 13:12 32,8 C 38,9 C 28,3 C 43 % 1012,0 hPa 0,0 l/m 2 min 0 min 831 W/m 15,8 km/h (3 Bft) 97,22 %
24.07.2018 13:14 32,9 C 39,4 C 27,8 C 44 % 1012,0 hPa 0,0 l/m 2 min 0 min 836 W/m 6,8 km/h (2 Bft) 97,87 %
24.07.2018 13:16 32,9 C 40,0 C 28,3 C 45 % 1011,9 hPa 0,0 l/m 2 min 0 min 837 W/m 4,5 km/h (1 Bft) 95,74 %
24.07.2018 13:18 32,9 C 38,9 C 28,3 C 43 % 1011,9 hPa 0,0 l/m 2 min 0 min 839 W/m 11,3 km/h (2 Bft) 95,65 %
24.07.2018 13:20 32,9 C 38,3 C 28,9 C 42 % 1012,0 hPa 0,0 l/m 2 min 0 min 846 W/m 15,8 km/h (3 Bft) 97,87 %
24.07.2018 13:22 32,9 C 37,8 C 28,9 C 43 % 1012,0 hPa 0,0 l/m 2 min 0 min 845 W/m 13,5 km/h (3 Bft) 94,64 %
24.07.2018 13:24 32,9 C 38,9 C 28,3 C 43 % 1011,9 hPa 0,0 l/m 2 min 0 min 837 W/m 9,0 km/h (2 Bft) 95,65 %
24.07.2018 13:26 32,9 C 38,9 C 28,9 C 43 % 1012,0 hPa 0,0 l/m 2 min 0 min 836 W/m 9,0 km/h (2 Bft) 97,87 %
24.07.2018 13:28 32,9 C 40,0 C 28,9 C 43 % 1011,9 hPa 0,0 l/m 2 min 0 min 837 W/m 6,8 km/h (2 Bft) 96,00 %
24.07.2018 13:30 32,9 C 39,4 C 28,3 C 44 % 1011,9 hPa 0,0 l/m 2 min 0 min 842 W/m 6,8 km/h (2 Bft) 95,74 %
24.07.2018 13:32 32,9 C 38,9 C 28,9 C 42 % 1011,9 hPa 0,0 l/m 2 min 0 min 840 W/m 11,3 km/h (2 Bft) 95,74 %
24.07.2018 13:34 32,9 C 38,9 C 28,9 C 43 % 1011,8 hPa 0,0 l/m 2 min 0 min 841 W/m 4,5 km/h (1 Bft) 95,74 %
24.07.2018 13:36 32,9 C 38,3 C 28,9 C 44 % 1011,8 hPa 0,0 l/m 2 min 0 min 837 W/m 9,0 km/h (2 Bft) 94,29 %
24.07.2018 13:38 32,9 C 36,7 C 28,9 C 43 % 1011,8 hPa 0,0 l/m 2 min 0 min 840 W/m 6,8 km/h (2 Bft) 95,74 %
24.07.2018 13:40 32,9 C 35,0 C 28,9 C 44 % 1011,7 hPa 0,0 l/m 2 min 0 min 846 W/m 4,5 km/h (1 Bft) 95,74 %
24.07.2018 13:42 32,9 C 34,4 C 29,4 C 44 % 1011,8 hPa 0,0 l/m 2 min 0 min 841 W/m 6,8 km/h (2 Bft) 93,48 %
24.07.2018 13:44 32,9 C 33,3 C 29,4 C 44 % 1011,8 hPa 0,0 l/m 2 min 0 min 847 W/m 11,3 km/h (2 Bft) 96,43 %
24.07.2018 13:46 32,9 C 32,8 C 29,4 C 45 % 1011,8 hPa 0,0 l/m 2 min 0 min 842 W/m 9,0 km/h (2 Bft) 97,87 %
24.07.2018 13:48 32,9 C 33,3 C 29,4 C 45 % 1011,8 hPa 0,0 l/m 2 min 0 min 830 W/m 6,8 km/h (2 Bft) 95,65 %
24.07.2018 13:50 32,9 C 32,8 C 29,4 C 44 % 1011,8 hPa 0,0 l/m 2 min 0 min 839 W/m 11,3 km/h (2 Bft) 97,87 %
24.07.2018 13:52 32,9 C 32,8 C 29,4 C 45 % 1011,9 hPa 0,0 l/m 2 min 0 min 833 W/m 6,8 km/h (2 Bft) 98,00 %
24.07.2018 13:54 32,9 C 32,8 C 29,4 C 44 % 1011,8 hPa 0,0 l/m 2 min 0 min 840 W/m 6,8 km/h (2 Bft) 95,74 %
24.07.2018 13:56 32,9 C 32,2 C 29,4 C 43 % 1011,8 hPa 0,0 l/m 2 min 0 min 846 W/m 6,8 km/h (2 Bft) 97,14 %
24.07.2018 13:58 32,8 C 32,2 C 28,9 C 44 % 1011,8 hPa 0,0 l/m 2 min 0 min 827 W/m 6,8 km/h (2 Bft) 97,87 %
24.07.2018 14:00 32,8 C 32,2 C 28,9 C 44 % 1011,7 hPa 0,0 l/m 2 min 0 min 842 W/m 9,0 km/h (2 Bft) 97,87 %
24.07.2018 14:02 32,8 C 31,7 C 28,9 C 44 % 1011,6 hPa 0,0 l/m 0 min 0 min 387 W/m 6,8 km/h (2 Bft) 97,87 %
24.07.2018 14:04 32,7 C 31,7 C 28,9 C 45 % 1011,6 hPa 0,0 l/m 0 min 0 min 399 W/m 6,8 km/h (2 Bft) 97,83 %
24.07.2018 14:06 32,6 C 31,7 C 28,9 C 44 % 1011,5 hPa 0,0 l/m 2 min 0 min 852 W/m 9,0 km/h (2 Bft) 100,00 %
24.07.2018 14:08 32,6 C 32,2 C 28,9 C 45 % 1011,6 hPa 0,0 l/m 2 min 0 min 853 W/m 6,8 km/h (2 Bft) 97,87 %
24.07.2018 14:10 32,6 C 32,2 C 28,9 C 45 % 1011,5 hPa 0,0 l/m 2 min 0 min 858 W/m 4,5 km/h (1 Bft) 100,00 %
24.07.2018 14:12 32,5 C 32,2 C 29,4 C 46 % 1011,5 hPa 0,0 l/m 2 min 0 min 849 W/m 6,8 km/h (2 Bft) 100,00 %
24.07.2018 14:14 32,4 C 32,2 C 28,9 C 44 % 1011,5 hPa 0,0 l/m 2 min 0 min 856 W/m 11,3 km/h (2 Bft) 100,00 %
24.07.2018 14:16 32,4 C 32,2 C 28,9 C 45 % 1011,4 hPa 0,0 l/m 2 min 0 min 851 W/m 4,5 km/h (1 Bft) 100,00 %
24.07.2018 14:18 32,4 C 32,2 C 28,9 C 45 % 1011,5 hPa 0,0 l/m 2 min 0 min 838 W/m 6,8 km/h (2 Bft) 100,00 %
24.07.2018 14:20 32,4 C 32,2 C 28,9 C 45 % 1011,5 hPa 0,0 l/m 2 min 0 min 835 W/m 4,5 km/h (1 Bft) 97,14 %
24.07.2018 14:22 32,4 C 32,2 C 28,9 C 46 % 1011,5 hPa 0,0 l/m 2 min 0 min 856 W/m 6,8 km/h (2 Bft) 100,00 %
24.07.2018 14:24 32,4 C 32,2 C 28,9 C 43 % 1011,5 hPa 0,0 l/m 2 min 0 min 873 W/m 6,8 km/h (2 Bft) 100,00 %
24.07.2018 14:26 32,3 C 32,2 C 28,3 C 45 % 1011,5 hPa 0,0 l/m 2 min 0 min 868 W/m 6,8 km/h (2 Bft) 100,00 %
24.07.2018 14:28 32,3 C 32,2 C 28,9 C 44 % 1011,5 hPa 0,0 l/m 2 min 0 min 852 W/m 9,0 km/h (2 Bft) 100,00 %
24.07.2018 14:30 32,3 C 32,2 C 28,9 C 43 % 1011,5 hPa 0,0 l/m 2 min 0 min 839 W/m 11,3 km/h (2 Bft) 100,00 %
24.07.2018 14:32 32,3 C 32,2 C 29,4 C 43 % 1011,5 hPa 0,0 l/m 2 min 0 min 851 W/m 11,3 km/h (2 Bft) 100,00 %
24.07.2018 14:34 32,3 C 32,2 C 29,4 C 45 % 1011,5 hPa 0,0 l/m 2 min 0 min 848 W/m 9,0 km/h (2 Bft) 100,00 %
24.07.2018 14:36 32,3 C 31,7 C 29,4 C 44 % 1011,5 hPa 0,0 l/m 2 min 0 min 788 W/m 6,8 km/h (2 Bft) 98,18 %
24.07.2018 14:38 32,3 C 31,7 C 29,4 C 44 % 1011,5 hPa 0,0 l/m 2 min 0 min 805 W/m 9,0 km/h (2 Bft) 100,00 %
24.07.2018 14:40 32,3 C 32,2 C 29,4 C 43 % 1011,5 hPa 0,0 l/m 2 min 0 min 856 W/m 9,0 km/h (2 Bft) 100,00 %
24.07.2018 14:42 32,3 C 31,7 C 29,4 C 43 % 1011,5 hPa 0,0 l/m 2 min 0 min 854 W/m 6,8 km/h (2 Bft) 98,00 %
24.07.2018 14:44 32,3 C 32,2 C 29,4 C 45 % 1011,4 hPa 0,0 l/m 2 min 0 min 856 W/m 6,8 km/h (2 Bft) 97,87 %
24.07.2018 14:46 32,3 C 32,2 C 28,9 C 46 % 1011,4 hPa 0,0 l/m 2 min 0 min 884 W/m 4,5 km/h (1 Bft) 95,65 %
24.07.2018 14:48 32,3 C 32,2 C 28,9 C 45 % 1011,3 hPa 0,0 l/m 2 min 0 min 871 W/m 6,8 km/h (2 Bft) 97,87 %
24.07.2018 14:50 32,3 C 32,2 C 28,9 C 45 % 1011,3 hPa 0,0 l/m 2 min 0 min 879 W/m 9,0 km/h (2 Bft) 97,22 %
24.07.2018 14:52 32,2 C 31,1 C 28,9 C 43 % 1011,3 hPa 0,0 l/m 0 min 0 min 234 W/m 13,5 km/h (3 Bft) 97,83 %
24.07.2018 14:54 32,2 C 31,1 C 28,3 C 43 % 1011,3 hPa 0,0 l/m 0 min 0 min 149 W/m 11,3 km/h (2 Bft) 97,87 %
24.07.2018 14:56 32,2 C 31,1 C 28,3 C 42 % 1011,3 hPa 0,0 l/m 0 min 0 min 168 W/m 11,3 km/h (2 Bft) 97,87 %
24.07.2018 14:58 32,2 C 31,7 C 28,3 C 43 % 1011,2 hPa 0,0 l/m 2 min 0 min 497 W/m 13,5 km/h (3 Bft) 97,87 %
24.07.2018 15:00 32,1 C 31,7 C 28,9 C 42 % 1011,3 hPa 0,0 l/m 2 min 0 min 858 W/m 13,5 km/h (3 Bft) 98,18 %
24.07.2018 15:02 32,1 C 31,7 C 28,9 C 43 % 1011,2 hPa 0,0 l/m 2 min 0 min 823 W/m 9,0 km/h (2 Bft) 97,87 %
24.07.2018 15:04 32,1 C 32,2 C 29,4 C 42 % 1011,2 hPa 0,0 l/m 2 min 0 min 824 W/m 9,0 km/h (2 Bft) 89,36 %
24.07.2018 15:06 32,1 C 32,2 C 29,4 C 43 % 1011,2 hPa 0,0 l/m 2 min 0 min 824 W/m 4,5 km/h (1 Bft) 97,87 %
24.07.2018 15:08 32,1 C 32,2 C 29,4 C 44 % 1011,3 hPa 0,0 l/m 2 min 0 min 849 W/m 9,0 km/h (2 Bft) 97,83 %
24.07.2018 15:10 32,1 C 32,2 C 29,4 C 43 % 1011,2 hPa 0,0 l/m 2 min 0 min 866 W/m 6,8 km/h (2 Bft) 97,87 %
24.07.2018 15:12 32,1 C 32,2 C 28,9 C 45 % 1011,2 hPa 0,0 l/m 2 min 0 min 866 W/m 2,3 km/h (1 Bft) 97,87 %
24.07.2018 15:14 32,1 C 32,2 C 29,4 C 43 % 1011,2 hPa 0,0 l/m 2 min 0 min 852 W/m 6,8 km/h (2 Bft) 98,00 %
24.07.2018 15:16 32,1 C 32,8 C 29,4 C 45 % 1011,1 hPa 0,0 l/m 2 min 0 min 844 W/m 4,5 km/h (1 Bft) 97,87 %
24.07.2018 15:18 32,1 C 32,8 C 29,4 C 46 % 1011,1 hPa 0,0 l/m 2 min 0 min 841 W/m 9,0 km/h (2 Bft) 97,22 %
24.07.2018 15:20 32,2 C 32,8 C 29,4 C 45 % 1011,1 hPa 0,0 l/m 2 min 0 min 847 W/m 6,8 km/h (2 Bft) 95,74 %
24.07.2018 15:22 32,2 C 32,8 C 29,4 C 43 % 1011,0 hPa 0,0 l/m 2 min 0 min 844 W/m 6,8 km/h (2 Bft) 95,74 %
24.07.2018 15:24 32,2 C 32,2 C 29,4 C 43 % 1011,0 hPa 0,0 l/m 2 min 0 min 844 W/m 2,3 km/h (1 Bft) 93,62 %
24.07.2018 15:26 32,2 C 32,2 C 29,4 C 44 % 1011,0 hPa 0,0 l/m 0 min 0 min 298 W/m 6,8 km/h (2 Bft) 93,48 %
24.07.2018 15:28 32,2 C 31,7 C 29,4 C 44 % 1011,0 hPa 0,0 l/m 0 min 0 min 150 W/m 4,5 km/h (1 Bft) 95,74 %
24.07.2018 15:30 32,2 C 31,1 C 28,9 C 43 % 1011,0 hPa 0,0 l/m 0 min 0 min 156 W/m 11,3 km/h (2 Bft) 95,74 %
24.07.2018 15:32 32,2 C 31,7 C 28,9 C 43 % 1011,0 hPa 0,0 l/m 2 min 0 min 400 W/m 9,0 km/h (2 Bft) 95,83 %
24.07.2018 15:34 32,2 C 32,2 C 29,4 C 44 % 1011,0 hPa 0,0 l/m 2 min 0 min 830 W/m 11,3 km/h (2 Bft) 95,74 %
24.07.2018 15:36 32,2 C 32,8 C 29,4 C 44 % 1011,0 hPa 0,0 l/m 2 min 0 min 824 W/m 4,5 km/h (1 Bft) 97,87 %
24.07.2018 15:38 32,2 C 32,8 C 29,4 C 45 % 1011,0 hPa 0,0 l/m 2 min 0 min 810 W/m 6,8 km/h (2 Bft) 98,15 %
24.07.2018 15:40 32,2 C 33,3 C 29,4 C 43 % 1011,0 hPa 0,0 l/m 2 min 0 min 793 W/m 4,5 km/h (1 Bft) 97,37 %
24.07.2018 15:42 32,2 C 33,3 C 29,4 C 44 % 1010,9 hPa 0,0 l/m 2 min 0 min 793 W/m 4,5 km/h (1 Bft) 91,49 %
24.07.2018 15:44 32,3 C 32,8 C 29,4 C 43 % 1010,9 hPa 0,0 l/m 2 min 0 min 793 W/m 4,5 km/h (1 Bft) 97,87 %
24.07.2018 15:46 32,3 C 33,3 C 29,4 C 44 % 1010,9 hPa 0,0 l/m 2 min 0 min 807 W/m 2,3 km/h (1 Bft) 97,83 %
24.07.2018 15:48 32,3 C 33,9 C 29,4 C 46 % 1010,9 hPa 0,0 l/m 2 min 0 min 830 W/m 9,0 km/h (2 Bft) 97,87 %
24.07.2018 15:50 32,4 C 33,9 C 29,4 C 44 % 1010,9 hPa 0,0 l/m 2 min 0 min 845 W/m 6,8 km/h (2 Bft) 96,61 %
24.07.2018 15:52 32,4 C 34,4 C 30,0 C 42 % 1010,9 hPa 0,0 l/m 2 min 0 min 852 W/m 6,8 km/h (2 Bft) 97,87 %
24.07.2018 15:54 32,5 C 35,0 C 30,6 C 41 % 1011,0 hPa 0,0 l/m 2 min 0 min 843 W/m 11,3 km/h (2 Bft) 97,14 %
24.07.2018 15:56 32,6 C 35,0 C 30,6 C 41 % 1010,9 hPa 0,0 l/m 2 min 0 min 836 W/m 11,3 km/h (2 Bft) 97,87 %
24.07.2018 15:58 32,6 C 35,0 C 30,6 C 41 % 1010,9 hPa 0,0 l/m 2 min 0 min 830 W/m 4,5 km/h (1 Bft) 97,83 %
24.07.2018 16:00 32,7 C 36,7 C 30,6 C 42 % 1010,8 hPa 0,0 l/m 2 min 0 min 829 W/m 6,8 km/h (2 Bft) 93,88 %
24.07.2018 16:02 32,8 C 37,2 C 30,6 C 43 % 1010,8 hPa 0,0 l/m 2 min 0 min 814 W/m 6,8 km/h (2 Bft) 97,87 %
24.07.2018 16:04 32,9 C 36,7 C 30,6 C 42 % 1010,8 hPa 0,0 l/m 2 min 0 min 803 W/m 9,0 km/h (2 Bft) 100,00 %
24.07.2018 16:06 32,9 C 37,2 C 30,6 C 41 % 1010,7 hPa 0,0 l/m 2 min 0 min 794 W/m 4,5 km/h (1 Bft) 100,00 %
24.07.2018 16:08 33,0 C 37,2 C 30,6 C 41 % 1010,7 hPa 0,0 l/m 2 min 0 min 786 W/m 4,5 km/h (1 Bft) 97,87 %
24.07.2018 16:10 33,1 C 37,8 C 30,0 C 43 % 1010,8 hPa 0,0 l/m 2 min 0 min 772 W/m 6,8 km/h (2 Bft) 100,00 %
24.07.2018 16:12 33,1 C 37,8 C 30,6 C 41 % 1010,8 hPa 0,0 l/m 2 min 0 min 763 W/m 6,8 km/h (2 Bft) 97,83 %
24.07.2018 16:14 33,2 C 37,8 C 30,6 C 42 % 1010,8 hPa 0,0 l/m 2 min 0 min 754 W/m 6,8 km/h (2 Bft) 100,00 %
24.07.2018 16:16 33,2 C 38,3 C 30,0 C 42 % 1010,8 hPa 0,0 l/m 2 min 0 min 753 W/m 9,0 km/h (2 Bft) 97,87 %
24.07.2018 16:18 33,3 C 37,8 C 30,0 C 41 % 1010,8 hPa 0,0 l/m 2 min 0 min 747 W/m 6,8 km/h (2 Bft) 100,00 %
24.07.2018 16:20 33,3 C 38,3 C 30,0 C 42 % 1010,8 hPa 0,0 l/m 2 min 0 min 743 W/m 2,3 km/h (1 Bft) 98,11 %
24.07.2018 16:22 33,3 C 37,8 C 30,0 C 42 % 1010,8 hPa 0,0 l/m 2 min 0 min 735 W/m 2,3 km/h (1 Bft) 100,00 %
24.07.2018 16:24 33,3 C 38,3 C 30,0 C 41 % 1010,8 hPa 0,0 l/m 2 min 0 min 734 W/m 4,5 km/h (1 Bft) 100,00 %
24.07.2018 16:26 33,4 C 37,8 C 30,0 C 42 % 1010,8 hPa 0,0 l/m 2 min 0 min 739 W/m 6,8 km/h (2 Bft) 95,74 %
24.07.2018 16:28 33,4 C 37,8 C 30,0 C 42 % 1010,7 hPa 0,0 l/m 2 min 0 min 743 W/m 9,0 km/h (2 Bft) 100,00 %
24.07.2018 16:30 33,4 C 37,8 C 30,0 C 42 % 1010,7 hPa 0,0 l/m 2 min 0 min 749 W/m 9,0 km/h (2 Bft) 100,00 %
24.07.2018 16:32 33,5 C 37,8 C 30,0 C 42 % 1010,7 hPa 0,0 l/m 2 min 0 min 743 W/m 9,0 km/h (2 Bft) 95,65 %
24.07.2018 16:34 33,6 C 38,3 C 30,0 C 42 % 1010,7 hPa 0,0 l/m 2 min 0 min 741 W/m 6,8 km/h (2 Bft) 97,87 %
24.07.2018 16:36 33,6 C 38,3 C 30,0 C 43 % 1010,7 hPa 0,0 l/m 2 min 0 min 732 W/m 4,5 km/h (1 Bft) 100,00 %
24.07.2018 16:38 33,6 C 38,3 C 30,0 C 42 % 1010,6 hPa 0,0 l/m 2 min 0 min 725 W/m 6,8 km/h (2 Bft) 97,87 %
24.07.2018 16:40 33,6 C 37,2 C 30,6 C 41 % 1010,6 hPa 0,0 l/m 2 min 0 min 730 W/m 13,5 km/h (3 Bft) 100,00 %
24.07.2018 16:42 33,7 C 37,8 C 30,0 C 41 % 1010,6 hPa 0,0 l/m 2 min 0 min 736 W/m 6,8 km/h (2 Bft) 95,65 %
24.07.2018 16:44 33,7 C 37,8 C 30,0 C 40 % 1010,6 hPa 0,0 l/m 2 min 0 min 737 W/m 6,8 km/h (2 Bft) 94,74 %
24.07.2018 16:46 33,7 C 37,8 C 30,0 C 41 % 1010,5 hPa 0,0 l/m 2 min 0 min 733 W/m 4,5 km/h (1 Bft) 98,00 %
24.07.2018 16:48 33,7 C 37,2 C 30,0 C 40 % 1010,5 hPa 0,0 l/m 2 min 0 min 729 W/m 2,3 km/h (1 Bft) 93,48 %
24.07.2018 16:50 33,7 C 37,2 C 30,6 C 40 % 1010,5 hPa 0,0 l/m 2 min 0 min 726 W/m 4,5 km/h (1 Bft) 100,00 %
24.07.2018 16:52 33,7 C 36,7 C 30,6 C 40 % 1010,5 hPa 0,0 l/m 2 min 0 min 694 W/m 4,5 km/h (1 Bft) 98,15 %
24.07.2018 16:54 33,7 C 36,1 C 30,6 C 40 % 1010,6 hPa 0,0 l/m 2 min 0 min 677 W/m 6,8 km/h (2 Bft) 97,22 %
24.07.2018 16:56 33,8 C 36,1 C 30,6 C 41 % 1010,6 hPa 0,0 l/m 2 min 0 min 685 W/m 6,8 km/h (2 Bft) 100,00 %
24.07.2018 16:58 33,8 C 36,1 C 30,6 C 42 % 1010,6 hPa 0,0 l/m 2 min 0 min 690 W/m 11,3 km/h (2 Bft) 97,87 %
24.07.2018 17:00 33,8 C 35,6 C 30,6 C 39 % 1010,6 hPa 0,0 l/m 2 min 0 min 683 W/m 6,8 km/h (2 Bft) 95,92 %
24.07.2018 17:02 33,8 C 35,6 C 30,6 C 40 % 1010,5 hPa 0,0 l/m 2 min 0 min 678 W/m 9,0 km/h (2 Bft) 97,87 %
24.07.2018 17:04 33,8 C 36,1 C 30,6 C 40 % 1010,5 hPa 0,0 l/m 2 min 0 min 679 W/m 9,0 km/h (2 Bft) 97,87 %
24.07.2018 17:06 33,8 C 35,6 C 30,6 C 39 % 1010,5 hPa 0,0 l/m 2 min 0 min 681 W/m 9,0 km/h (2 Bft) 97,96 %
24.07.2018 17:08 33,8 C 35,6 C 30,6 C 40 % 1010,6 hPa 0,0 l/m 2 min 0 min 665 W/m 6,8 km/h (2 Bft) 95,74 %
24.07.2018 17:10 33,8 C 36,1 C 30,6 C 42 % 1010,5 hPa 0,0 l/m 2 min 0 min 653 W/m 4,5 km/h (1 Bft) 95,74 %
24.07.2018 17:12 33,9 C 35,6 C 30,6 C 40 % 1010,5 hPa 0,0 l/m 2 min 0 min 651 W/m 9,0 km/h (2 Bft) 97,83 %
24.07.2018 17:14 33,9 C 35,6 C 30,6 C 40 % 1010,4 hPa 0,0 l/m 2 min 0 min 658 W/m 11,3 km/h (2 Bft) 97,67 %
24.07.2018 17:16 33,9 C 35,6 C 31,1 C 40 % 1010,4 hPa 0,0 l/m 2 min 0 min 654 W/m 9,0 km/h (2 Bft) 97,87 %
24.07.2018 17:18 33,9 C 36,1 C 30,6 C 42 % 1010,5 hPa 0,0 l/m 2 min 0 min 652 W/m 9,0 km/h (2 Bft) 97,92 %
24.07.2018 17:20 33,9 C 36,1 C 30,6 C 41 % 1010,4 hPa 0,0 l/m 2 min 0 min 653 W/m 9,0 km/h (2 Bft) 97,83 %
24.07.2018 17:22 34,0 C 36,1 C 30,6 C 42 % 1010,4 hPa 0,0 l/m 2 min 0 min 653 W/m 6,8 km/h (2 Bft) 98,00 %
24.07.2018 17:24 34,0 C 35,6 C 30,6 C 42 % 1010,4 hPa 0,0 l/m 2 min 0 min 640 W/m 4,5 km/h (1 Bft) 97,87 %
24.07.2018 17:26 34,0 C 35,0 C 30,6 C 41 % 1010,4 hPa 0,0 l/m 2 min 0 min 635 W/m 6,8 km/h (2 Bft) 97,87 %
24.07.2018 17:28 34,0 C 35,0 C 30,6 C 41 % 1010,4 hPa 0,0 l/m 2 min 0 min 619 W/m 9,0 km/h (2 Bft) 97,87 %
24.07.2018 17:30 34,0 C 35,0 C 30,6 C 41 % 1010,3 hPa 0,0 l/m 2 min 0 min 611 W/m 6,8 km/h (2 Bft) 97,87 %
24.07.2018 17:32 34,0 C 34,4 C 30,6 C 40 % 1010,3 hPa 0,0 l/m 2 min 0 min 608 W/m 6,8 km/h (2 Bft) 98,11 %
24.07.2018 17:34 34,0 C 34,4 C 30,6 C 41 % 1010,3 hPa 0,0 l/m 2 min 0 min 597 W/m 6,8 km/h (2 Bft) 95,74 %
24.07.2018 17:36 34,0 C 34,4 C 30,6 C 41 % 1010,3 hPa 0,0 l/m 2 min 0 min 589 W/m 6,8 km/h (2 Bft) 97,87 %
24.07.2018 17:38 33,9 C 33,9 C 31,1 C 41 % 1010,3 hPa 0,0 l/m 2 min 0 min 585 W/m 4,5 km/h (1 Bft) 97,87 %
24.07.2018 17:40 33,9 C 34,4 C 30,6 C 41 % 1010,3 hPa 0,0 l/m 2 min 0 min 580 W/m 6,8 km/h (2 Bft) 95,65 %
24.07.2018 17:42 33,9 C 34,4 C 31,1 C 39 % 1010,3 hPa 0,0 l/m 2 min 0 min 575 W/m 11,3 km/h (2 Bft) 97,37 %
24.07.2018 17:44 33,9 C 34,4 C 31,1 C 40 % 1010,3 hPa 0,0 l/m 2 min 0 min 573 W/m 6,8 km/h (2 Bft) 98,00 %
24.07.2018 17:46 34,0 C 34,4 C 31,1 C 40 % 1010,3 hPa 0,0 l/m 2 min 0 min 571 W/m 9,0 km/h (2 Bft) 97,83 %
24.07.2018 17:48 34,0 C 34,4 C 31,1 C 42 % 1010,3 hPa 0,0 l/m 2 min 0 min 566 W/m 4,5 km/h (1 Bft) 97,87 %
24.07.2018 17:50 34,0 C 34,4 C 31,1 C 42 % 1010,2 hPa 0,0 l/m 2 min 0 min 561 W/m 9,0 km/h (2 Bft) 98,15 %
24.07.2018 17:52 34,0 C 33,9 C 31,1 C 39 % 1010,2 hPa 0,0 l/m 2 min 0 min 550 W/m 9,0 km/h (2 Bft) 97,83 %
24.07.2018 17:54 34,0 C 33,9 C 31,1 C 40 % 1010,2 hPa 0,0 l/m 2 min 0 min 540 W/m 9,0 km/h (2 Bft) 95,74 %
24.07.2018 17:56 34,0 C 33,9 C 31,1 C 39 % 1010,2 hPa 0,0 l/m 2 min 0 min 535 W/m 9,0 km/h (2 Bft) 95,74 %
24.07.2018 17:58 34,0 C 33,3 C 31,1 C 39 % 1010,2 hPa 0,0 l/m 2 min 0 min 529 W/m 6,8 km/h (2 Bft) 97,87 %
24.07.2018 18:00 34,0 C 33,9 C 31,1 C 39 % 1010,3 hPa 0,0 l/m 2 min 0 min 514 W/m 11,3 km/h (2 Bft) 100,00 %
24.07.2018 18:02 34,0 C 33,9 C 31,1 C 39 % 1010,3 hPa 0,0 l/m 2 min 0 min 500 W/m 6,8 km/h (2 Bft) 100,00 %
24.07.2018 18:04 34,0 C 33,3 C 31,1 C 38 % 1010,2 hPa 0,0 l/m 2 min 0 min 497 W/m 13,5 km/h (3 Bft) 100,00 %
24.07.2018 18:08 34,0 C 33,3 C 31,1 C 41 % 1010,2 hPa 0,0 l/m 4 min 0 min 482 W/m 6,8 km/h (2 Bft) 100,00 %
24.07.2018 18:10 34,0 C 33,3 C 31,1 C 39 % 1010,2 hPa 0,0 l/m 2 min 0 min 469 W/m 9,0 km/h (2 Bft) 100,00 %
24.07.2018 18:12 34,0 C 32,8 C 31,1 C 38 % 1010,2 hPa 0,0 l/m 2 min 0 min 454 W/m 6,8 km/h (2 Bft) 100,00 %
24.07.2018 18:14 34,0 C 33,3 C 30,6 C 39 % 1010,2 hPa 0,0 l/m 2 min 0 min 449 W/m 2,3 km/h (1 Bft) 100,00 %
24.07.2018 18:16 33,9 C 32,8 C 30,6 C 38 % 1010,2 hPa 0,0 l/m 2 min 0 min 438 W/m 6,8 km/h (2 Bft) 100,00 %
24.07.2018 18:18 33,9 C 33,3 C 30,6 C 40 % 1010,2 hPa 0,0 l/m 2 min 0 min 451 W/m 4,5 km/h (1 Bft) 100,00 %
24.07.2018 18:20 33,9 C 32,8 C 30,6 C 39 % 1010,2 hPa 0,0 l/m 2 min 0 min 409 W/m 6,8 km/h (2 Bft) 97,87 %
24.07.2018 18:22 33,9 C 33,3 C 30,6 C 42 % 1010,2 hPa 0,0 l/m 2 min 0 min 443 W/m 4,5 km/h (1 Bft) 97,73 %
24.07.2018 18:24 33,9 C 33,3 C 31,1 C 41 % 1010,2 hPa 0,0 l/m 2 min 0 min 415 W/m 4,5 km/h (1 Bft) 100,00 %
24.07.2018 18:26 33,9 C 33,3 C 31,1 C 42 % 1010,1 hPa 0,0 l/m 2 min 0 min 409 W/m 2,3 km/h (1 Bft) 100,00 %
24.07.2018 18:28 33,8 C 33,3 C 31,1 C 41 % 1010,2 hPa 0,0 l/m 2 min 0 min 401 W/m 4,5 km/h (1 Bft) 100,00 %
24.07.2018 18:30 33,8 C 33,3 C 31,1 C 41 % 1010,1 hPa 0,0 l/m 2 min 0 min 403 W/m 6,8 km/h (2 Bft) 100,00 %
24.07.2018 18:32 33,8 C 33,3 C 31,1 C 41 % 1010,2 hPa 0,0 l/m 2 min 0 min 405 W/m 2,3 km/h (1 Bft) 100,00 %
24.07.2018 18:34 33,8 C 33,3 C 30,6 C 41 % 1010,2 hPa 0,0 l/m 2 min 0 min 392 W/m 4,5 km/h (1 Bft) 100,00 %
24.07.2018 18:36 33,8 C 33,3 C 30,6 C 43 % 1010,2 hPa 0,0 l/m 2 min 0 min 353 W/m 4,5 km/h (1 Bft) 100,00 %
24.07.2018 18:38 33,7 C 32,8 C 30,6 C 41 % 1010,2 hPa 0,0 l/m 0 min 0 min 155 W/m 4,5 km/h (1 Bft) 100,00 %
24.07.2018 18:40 33,7 C 32,8 C 30,6 C 42 % 1010,2 hPa 0,0 l/m 0 min 0 min 163 W/m 6,8 km/h (2 Bft) 100,00 %
24.07.2018 18:42 33,7 C 32,8 C 30,0 C 41 % 1010,2 hPa 0,0 l/m 2 min 0 min 210 W/m 4,5 km/h (1 Bft) 97,62 %
24.07.2018 18:44 33,7 C 32,2 C 30,0 C 42 % 1010,1 hPa 0,0 l/m 2 min 0 min 239 W/m 4,5 km/h (1 Bft) 100,00 %
24.07.2018 18:46 33,6 C 32,2 C 30,0 C 41 % 1010,1 hPa 0,0 l/m 2 min 0 min 317 W/m 4,5 km/h (1 Bft) 100,00 %
24.07.2018 18:48 33,6 C 32,2 C 30,0 C 42 % 1010,1 hPa 0,0 l/m 2 min 0 min 329 W/m 4,5 km/h (1 Bft) 100,00 %
24.07.2018 18:50 33,5 C 32,2 C 30,0 C 39 % 1010,2 hPa 0,0 l/m 2 min 0 min 260 W/m 6,8 km/h (2 Bft) 100,00 %
24.07.2018 18:52 33,4 C 31,7 C 29,4 C 40 % 1010,1 hPa 0,0 l/m 0 min 0 min 184 W/m 6,8 km/h (2 Bft) 95,65 %
24.07.2018 18:54 33,4 C 31,7 C 29,4 C 40 % 1010,1 hPa 0,0 l/m 0 min 0 min 137 W/m 2,3 km/h (1 Bft) 100,00 %
24.07.2018 18:56 33,4 C 31,7 C 28,9 C 43 % 1010,1 hPa 0,0 l/m 2 min 0 min 230 W/m 2,3 km/h (1 Bft) 97,87 %
24.07.2018 18:58 33,3 C 31,7 C 28,9 C 39 % 1010,1 hPa 0,0 l/m 0 min 0 min 140 W/m 4,5 km/h (1 Bft) 97,87 %
24.07.2018 19:00 33,3 C 31,7 C 28,9 C 43 % 1010,1 hPa 0,0 l/m 0 min 0 min 105 W/m 2,3 km/h (1 Bft) 100,00 %
24.07.2018 19:02 33,2 C 31,1 C 28,3 C 41 % 1010,1 hPa 0,0 l/m 0 min 0 min 117 W/m 2,3 km/h (1 Bft) 100,00 %
24.07.2018 19:04 33,1 C 31,1 C 28,3 C 41 % 1010,1 hPa 0,0 l/m 2 min 0 min 196 W/m 4,5 km/h (1 Bft) 97,87 %
24.07.2018 19:06 33,0 C 31,1 C 28,3 C 43 % 1010,1 hPa 0,0 l/m 2 min 0 min 191 W/m 2,3 km/h (1 Bft) 100,00 %
24.07.2018 19:08 32,9 C 31,1 C 28,3 C 41 % 1010,0 hPa 0,0 l/m 2 min 0 min 173 W/m 2,3 km/h (1 Bft) 100,00 %
24.07.2018 19:10 32,8 C 31,1 C 28,3 C 44 % 1010,0 hPa 0,0 l/m 0 min 0 min 118 W/m 2,3 km/h (1 Bft) 100,00 %
24.07.2018 19:12 32,8 C 30,6 C 27,8 C 42 % 1010,0 hPa 0,0 l/m 0 min 0 min 97 W/m 2,3 km/h (1 Bft) 98,00 %
24.07.2018 19:14 32,7 C 30,6 C 27,8 C 45 % 1010,0 hPa 0,0 l/m 0 min 0 min 88 W/m 0,0 km/h (0 Bft) 97,87 %
24.07.2018 19:16 32,6 C 30,6 C 27,8 C 44 % 1010,0 hPa 0,0 l/m 0 min 0 min 88 W/m 0,0 km/h (0 Bft) 97,87 %
24.07.2018 19:18 32,6 C 30,6 C 27,8 C 43 % 1010,0 hPa 0,0 l/m 0 min 0 min 93 W/m 0,0 km/h (0 Bft) 97,87 %
24.07.2018 19:20 32,5 C 30,6 C 27,8 C 45 % 1010,0 hPa 0,0 l/m 0 min 0 min 95 W/m 0,0 km/h (0 Bft) 97,83 %
24.07.2018 19:22 32,4 C 30,6 C 27,2 C 45 % 1010,0 hPa 0,0 l/m 0 min 0 min 93 W/m 0,0 km/h (0 Bft) 98,15 %
24.07.2018 19:24 32,4 C 30,6 C 27,2 C 47 % 1009,9 hPa 0,0 l/m 0 min 0 min 89 W/m 0,0 km/h (0 Bft) 95,74 %
24.07.2018 19:26 32,3 C 30,6 C 26,7 C 46 % 1009,9 hPa 0,0 l/m 0 min 0 min 91 W/m 0,0 km/h (0 Bft) 97,83 %
24.07.2018 19:28 32,2 C 30,6 C 26,7 C 45 % 1009,9 hPa 0,0 l/m 0 min 0 min 90 W/m 0,0 km/h (0 Bft) 97,37 %
24.07.2018 19:30 32,2 C 30,6 C 26,7 C 47 % 1010,0 hPa 0,0 l/m 0 min 0 min 90 W/m 0,0 km/h (0 Bft) 97,96 %
24.07.2018 19:32 32,1 C 30,6 C 26,1 C 47 % 1009,9 hPa 0,0 l/m 0 min 0 min 88 W/m 0,0 km/h (0 Bft) 97,87 %
24.07.2018 19:34 32,0 C 30,6 C 26,1 C 47 % 1010,0 hPa 0,0 l/m 0 min 0 min 88 W/m 0,0 km/h (0 Bft) 97,87 %
24.07.2018 19:36 31,9 C 30,6 C 25,6 C 48 % 1009,9 hPa 0,0 l/m 0 min 0 min 88 W/m 0,0 km/h (0 Bft) 97,87 %
24.07.2018 19:38 31,9 C 30,6 C 25,6 C 48 % 1010,0 hPa 0,0 l/m 0 min 0 min 87 W/m 0,0 km/h (0 Bft) 97,87 %
24.07.2018 19:40 31,8 C 30,6 C 25,6 C 49 % 1009,9 hPa 0,0 l/m 0 min 0 min 85 W/m 2,3 km/h (1 Bft) 97,87 %
24.07.2018 19:42 31,8 C 30,6 C 25,6 C 48 % 1010,0 hPa 0,0 l/m 0 min 0 min 81 W/m 0,0 km/h (0 Bft) 97,83 %
24.07.2018 19:44 31,7 C 30,6 C 25,0 C 47 % 1009,9 hPa 0,0 l/m 0 min 0 min 78 W/m 0,0 km/h (0 Bft) 95,74 %
24.07.2018 19:46 31,6 C 30,0 C 23,9 C 47 % 1009,9 hPa 0,0 l/m 0 min 0 min 77 W/m 4,5 km/h (1 Bft) 96,30 %
24.07.2018 19:48 31,6 C 30,0 C 22,2 C 47 % 1010,0 hPa 0,0 l/m 0 min 0 min 76 W/m 2,3 km/h (1 Bft) 97,37 %
24.07.2018 19:50 31,5 C 29,4 C 22,2 C 46 % 1010,0 hPa 0,0 l/m 0 min 0 min 73 W/m 2,3 km/h (1 Bft) 95,92 %
24.07.2018 19:52 31,4 C 29,4 C 21,7 C 47 % 1010,0 hPa 0,0 l/m 0 min 0 min 72 W/m 2,3 km/h (1 Bft) 95,74 %
24.07.2018 19:54 31,4 C 29,4 C 21,1 C 46 % 1010,0 hPa 0,0 l/m 0 min 0 min 70 W/m 2,3 km/h (1 Bft) 97,83 %
24.07.2018 19:56 31,3 C 28,3 C 21,1 C 50 % 1010,1 hPa 0,0 l/m 0 min 0 min 70 W/m 4,5 km/h (1 Bft) 97,87 %
24.07.2018 19:58 31,3 C 27,8 C 21,1 C 48 % 1010,0 hPa 0,0 l/m 0 min 0 min 69 W/m 4,5 km/h (1 Bft) 97,87 %
24.07.2018 20:00 31,2 C 27,2 C 21,1 C 48 % 1010,0 hPa 0,0 l/m 0 min 0 min 68 W/m 4,5 km/h (1 Bft) 97,87 %
24.07.2018 20:02 31,1 C 27,8 C 21,1 C 47 % 1010,0 hPa 0,0 l/m 0 min 0 min 66 W/m 9,0 km/h (2 Bft) 93,62 %
24.07.2018 20:04 31,0 C 25,6 C 20,6 C 47 % 1010,1 hPa 0,0 l/m 0 min 0 min 64 W/m 6,8 km/h (2 Bft) 97,87 %
24.07.2018 20:06 30,9 C 25,0 C 20,0 C 49 % 1010,0 hPa 0,0 l/m 0 min 0 min 62 W/m 2,3 km/h (1 Bft) 98,11 %
24.07.2018 20:08 30,9 C 25,0 C 20,0 C 49 % 1010,0 hPa 0,0 l/m 0 min 0 min 61 W/m 2,3 km/h (1 Bft) 95,74 %
24.07.2018 20:10 30,7 C 25,6 C 20,0 C 48 % 1010,1 hPa 0,0 l/m 0 min 0 min 59 W/m 6,8 km/h (2 Bft) 97,87 %
24.07.2018 20:12 30,7 C 26,1 C 19,4 C 49 % 1010,1 hPa 0,0 l/m 0 min 0 min 57 W/m 4,5 km/h (1 Bft) 97,83 %
24.07.2018 20:14 30,6 C 26,1 C 19,4 C 50 % 1010,1 hPa 0,0 l/m 0 min 0 min 56 W/m 4,5 km/h (1 Bft) 100,00 %
24.07.2018 20:16 30,5 C 26,1 C 20,0 C 48 % 1010,1 hPa 0,0 l/m 0 min 0 min 54 W/m 11,3 km/h (2 Bft) 97,87 %
24.07.2018 20:18 30,4 C 26,1 C 19,4 C 49 % 1010,2 hPa 0,0 l/m 0 min 0 min 53 W/m 4,5 km/h (1 Bft) 95,92 %
24.07.2018 20:20 30,3 C 26,7 C 19,4 C 48 % 1010,2 hPa 0,0 l/m 0 min 0 min 51 W/m 4,5 km/h (1 Bft) 97,87 %
24.07.2018 20:22 30,2 C 26,7 C 19,4 C 48 % 1010,2 hPa 0,0 l/m 0 min 0 min 49 W/m 4,5 km/h (1 Bft) 98,15 %
24.07.2018 20:24 30,2 C 26,7 C 20,0 C 50 % 1010,2 hPa 0,0 l/m 0 min 0 min 47 W/m 0,0 km/h (0 Bft) 97,83 %
24.07.2018 20:26 30,1 C 27,2 C 19,4 C 52 % 1010,2 hPa 0,0 l/m 0 min 0 min 46 W/m 2,3 km/h (1 Bft) 97,87 %
24.07.2018 20:28 30,1 C 25,0 C 20,0 C 52 % 1010,2 hPa 0,0 l/m 0 min 0 min 44 W/m 9,0 km/h (2 Bft) 97,37 %
24.07.2018 20:30 30,0 C 23,9 C 19,4 C 52 % 1010,2 hPa 0,0 l/m 0 min 0 min 42 W/m 4,5 km/h (1 Bft) 97,87 %
24.07.2018 20:32 29,9 C 23,9 C 19,4 C 52 % 1010,2 hPa 0,0 l/m 0 min 0 min 40 W/m 4,5 km/h (1 Bft) 97,87 %
24.07.2018 20:34 29,8 C 23,9 C 19,4 C 54 % 1010,2 hPa 0,0 l/m 0 min 0 min 39 W/m 2,3 km/h (1 Bft) 97,87 %
24.07.2018 20:36 29,8 C 25,0 C 19,4 C 52 % 1010,1 hPa 0,0 l/m 0 min 0 min 38 W/m 2,3 km/h (1 Bft) 97,87 %
24.07.2018 20:38 29,7 C 25,6 C 19,4 C 53 % 1010,2 hPa 0,0 l/m 0 min 0 min 36 W/m 4,5 km/h (1 Bft) 97,83 %
24.07.2018 20:40 29,6 C 25,0 C 18,9 C 54 % 1010,2 hPa 0,0 l/m 0 min 0 min 35 W/m 2,3 km/h (1 Bft) 97,87 %
24.07.2018 20:42 29,5 C 24,4 C 19,4 C 54 % 1010,2 hPa 0,0 l/m 0 min 0 min 33 W/m 2,3 km/h (1 Bft) 97,87 %
24.07.2018 20:44 29,4 C 24,4 C 18,9 C 54 % 1010,2 hPa 0,0 l/m 0 min 0 min 32 W/m 2,3 km/h (1 Bft) 100,00 %
24.07.2018 20:46 29,3 C 25,0 C 18,9 C 53 % 1010,2 hPa 0,0 l/m 0 min 0 min 31 W/m 4,5 km/h (1 Bft) 100,00 %
24.07.2018 20:48 29,2 C 25,6 C 19,4 C 54 % 1010,3 hPa 0,0 l/m 0 min 0 min 29 W/m 2,3 km/h (1 Bft) 100,00 %
24.07.2018 20:50 29,2 C 25,6 C 19,4 C 54 % 1010,3 hPa 0,0 l/m 0 min 0 min 28 W/m 2,3 km/h (1 Bft) 100,00 %
24.07.2018 20:52 29,1 C 26,1 C 19,4 C 53 % 1010,2 hPa 0,0 l/m 0 min 0 min 26 W/m 2,3 km/h (1 Bft) 95,65 %
24.07.2018 20:54 28,9 C 26,1 C 19,4 C 54 % 1010,3 hPa 0,0 l/m 0 min 0 min 25 W/m 2,3 km/h (1 Bft) 97,87 %
24.07.2018 20:56 28,8 C 26,1 C 19,4 C 53 % 1010,3 hPa 0,0 l/m 0 min 0 min 23 W/m 0,0 km/h (0 Bft) 100,00 %
24.07.2018 20:58 28,8 C 26,1 C 19,4 C 53 % 1010,2 hPa 0,0 l/m 0 min 0 min 22 W/m 2,3 km/h (1 Bft) 100,00 %
24.07.2018 21:00 28,7 C 26,1 C 19,4 C 54 % 1010,2 hPa 0,0 l/m 0 min 0 min 20 W/m 0,0 km/h (0 Bft) 100,00 %
24.07.2018 21:02 28,6 C 26,7 C 20,0 C 54 % 1010,2 hPa 0,0 l/m 0 min 0 min 18 W/m 0,0 km/h (0 Bft) 95,35 %
24.07.2018 21:04 28,5 C 26,1 C 20,0 C 54 % 1010,2 hPa 0,0 l/m 0 min 0 min 18 W/m 0,0 km/h (0 Bft) 100,00 %
24.07.2018 21:06 28,4 C 26,1 C 20,0 C 53 % 1010,1 hPa 0,0 l/m 0 min 0 min 15 W/m 0,0 km/h (0 Bft) 100,00 %
24.07.2018 21:08 28,4 C 26,1 C 20,0 C 54 % 1010,3 hPa 0,0 l/m 0 min 0 min 14 W/m 0,0 km/h (0 Bft) 100,00 %
24.07.2018 21:10 28,3 C 26,1 C 20,0 C 54 % 1010,3 hPa 0,0 l/m 0 min 0 min 14 W/m 0,0 km/h (0 Bft) 100,00 %
24.07.2018 21:12 28,2 C 26,1 C 20,6 C 54 % 1010,3 hPa 0,0 l/m 0 min 0 min 12 W/m 0,0 km/h (0 Bft) 100,00 %
24.07.2018 21:14 28,1 C 26,1 C 21,1 C 54 % 1010,2 hPa 0,0 l/m 0 min 0 min 11 W/m 0,0 km/h (0 Bft) 100,00 %
24.07.2018 21:16 28,1 C 26,1 C 21,7 C 54 % 1010,2 hPa 0,0 l/m 0 min 0 min 11 W/m 0,0 km/h (0 Bft) 100,00 %
24.07.2018 21:18 28,0 C 26,1 C 21,7 C 55 % 1010,2 hPa 0,0 l/m 0 min 0 min 9 W/m 0,0 km/h (0 Bft) 100,00 %
24.07.2018 21:20 27,9 C 25,6 C 21,7 C 56 % 1010,2 hPa 0,0 l/m 0 min 0 min 9 W/m 0,0 km/h (0 Bft) 100,00 %
24.07.2018 21:22 27,9 C 25,6 C 21,7 C 59 % 1010,3 hPa 0,0 l/m 0 min 0 min 8 W/m 0,0 km/h (0 Bft) 100,00 %
24.07.2018 21:24 27,8 C 25,6 C 21,7 C 59 % 1010,3 hPa 0,0 l/m 0 min 0 min 7 W/m 0,0 km/h (0 Bft) 100,00 %
24.07.2018 21:26 27,7 C 25,6 C 21,7 C 58 % 1010,4 hPa 0,0 l/m 0 min 0 min 7 W/m 0,0 km/h (0 Bft) 97,87 %
24.07.2018 21:28 27,6 C 25,6 C 21,7 C 57 % 1010,3 hPa 0,0 l/m 0 min 0 min 5 W/m 0,0 km/h (0 Bft) 97,83 %
24.07.2018 21:30 27,6 C 25,6 C 21,7 C 57 % 1010,4 hPa 0,0 l/m 0 min 0 min 5 W/m 4,5 km/h (1 Bft) 100,00 %
24.07.2018 21:32 27,4 C 25,0 C 21,7 C 57 % 1010,5 hPa 0,0 l/m 0 min 0 min 5 W/m 2,3 km/h (1 Bft) 97,87 %
24.07.2018 21:34 27,4 C 25,0 C 21,7 C 57 % 1010,5 hPa 0,0 l/m 0 min 0 min 1 W/m 2,3 km/h (1 Bft) 97,87 %
24.07.2018 21:36 27,3 C 25,0 C 21,7 C 57 % 1010,5 hPa 0,0 l/m 0 min 0 min 0 W/m 2,3 km/h (1 Bft) 97,67 %
24.07.2018 21:38 27,2 C 25,0 C 21,7 C 57 % 1010,5 hPa 0,0 l/m 0 min 0 min 0 W/m 4,5 km/h (1 Bft) 97,83 %
24.07.2018 21:40 27,2 C 25,6 C 21,7 C 57 % 1010,6 hPa 0,0 l/m 0 min 0 min 0 W/m 2,3 km/h (1 Bft) 100,00 %
24.07.2018 21:42 27,1 C 25,0 C 21,7 C 57 % 1010,7 hPa 0,0 l/m 0 min 0 min 0 W/m 0,0 km/h (0 Bft) 100,00 %
24.07.2018 21:44 27,1 C 25,0 C 21,7 C 57 % 1010,6 hPa 0,0 l/m 0 min 0 min 0 W/m 0,0 km/h (0 Bft) 97,87 %
24.07.2018 21:46 27,0 C 25,0 C 21,7 C 57 % 1010,6 hPa 0,0 l/m 0 min 0 min 0 W/m 0,0 km/h (0 Bft) 93,62 %
24.07.2018 21:48 26,9 C 25,0 C 21,7 C 57 % 1010,6 hPa 0,0 l/m 0 min 0 min 0 W/m 2,3 km/h (1 Bft) 95,92 %
24.07.2018 21:50 26,9 C 25,0 C 21,7 C 57 % 1010,6 hPa 0,0 l/m 0 min 0 min 0 W/m 0,0 km/h (0 Bft) 95,74 %
24.07.2018 21:52 26,8 C 25,0 C 21,7 C 57 % 1010,6 hPa 0,0 l/m 0 min 0 min 0 W/m 0,0 km/h (0 Bft) 95,74 %
24.07.2018 21:54 26,8 C 25,0 C 21,7 C 57 % 1010,7 hPa 0,0 l/m 0 min 0 min 0 W/m 0,0 km/h (0 Bft) 93,62 %
24.07.2018 21:56 26,7 C 25,0 C 21,7 C 57 % 1010,6 hPa 0,0 l/m 0 min 0 min 0 W/m 0,0 km/h (0 Bft) 95,74 %
24.07.2018 21:58 26,7 C 25,0 C 21,7 C 58 % 1010,7 hPa 0,0 l/m 0 min 0 min 0 W/m 0,0 km/h (0 Bft) 93,75 %
24.07.2018 22:00 26,6 C 25,0 C 21,7 C 58 % 1010,7 hPa 0,0 l/m 0 min 0 min 0 W/m 0,0 km/h (0 Bft) 97,87 %
24.07.2018 22:02 26,6 C 24,4 C 21,7 C 59 % 1010,7 hPa 0,0 l/m 0 min 0 min 0 W/m 0,0 km/h (0 Bft) 93,62 %
24.07.2018 22:04 26,5 C 24,4 C 21,1 C 59 % 1010,7 hPa 0,0 l/m 0 min 0 min 0 W/m 0,0 km/h (0 Bft) 95,24 %
24.07.2018 22:06 26,4 C 24,4 C 21,1 C 59 % 1010,7 hPa 0,0 l/m 0 min 0 min 0 W/m 0,0 km/h (0 Bft) 96,08 %
24.07.2018 22:08 26,4 C 24,4 C 21,1 C 60 % 1010,8 hPa 0,0 l/m 0 min 0 min 0 W/m 0,0 km/h (0 Bft) 95,74 %
24.07.2018 22:10 26,3 C 24,4 C 21,1 C 60 % 1010,7 hPa 0,0 l/m 0 min 0 min 0 W/m 0,0 km/h (0 Bft) 95,74 %
24.07.2018 22:12 26,3 C 24,4 C 21,1 C 60 % 1010,8 hPa 0,0 l/m 0 min 0 min 0 W/m 0,0 km/h (0 Bft) 95,74 %
24.07.2018 22:14 26,2 C 24,4 C 21,1 C 60 % 1010,7 hPa 0,0 l/m 0 min 0 min 0 W/m 0,0 km/h (0 Bft) 94,29 %
24.07.2018 22:16 26,2 C 24,4 C 21,1 C 60 % 1010,8 hPa 0,0 l/m 0 min 0 min 0 W/m 0,0 km/h (0 Bft) 95,74 %
24.07.2018 22:18 26,1 C 24,4 C 21,1 C 60 % 1010,8 hPa 0,0 l/m 0 min 0 min 0 W/m 0,0 km/h (0 Bft) 95,65 %
24.07.2018 22:20 26,1 C 23,9 C 21,1 C 60 % 1010,8 hPa 0,0 l/m 0 min 0 min 0 W/m 2,3 km/h (1 Bft) 95,74 %
24.07.2018 22:22 26,0 C 23,9 C 21,1 C 61 % 1010,9 hPa 0,0 l/m 0 min 0 min 0 W/m 2,3 km/h (1 Bft) 94,44 %
24.07.2018 22:24 25,9 C 23,9 C 21,1 C 61 % 1010,8 hPa 0,0 l/m 0 min 0 min 0 W/m 2,3 km/h (1 Bft) 95,65 %
24.07.2018 22:26 25,9 C 23,9 C 21,1 C 61 % 1010,9 hPa 0,0 l/m 0 min 0 min 0 W/m 2,3 km/h (1 Bft) 97,87 %
24.07.2018 22:28 25,8 C 23,9 C 21,1 C 61 % 1010,9 hPa 0,0 l/m 0 min 0 min 0 W/m 0,0 km/h (0 Bft) 96,00 %
24.07.2018 22:30 25,8 C 23,9 C 21,1 C 61 % 1010,8 hPa 0,0 l/m 0 min 0 min 0 W/m 0,0 km/h (0 Bft) 95,92 %
24.07.2018 22:32 25,7 C 23,9 C 21,1 C 61 % 1010,9 hPa 0,0 l/m 0 min 0 min 0 W/m 0,0 km/h (0 Bft) 97,87 %
24.07.2018 22:34 25,7 C 23,9 C 21,1 C 61 % 1010,9 hPa 0,0 l/m 0 min 0 min 0 W/m 0,0 km/h (0 Bft) 95,74 %
24.07.2018 22:36 25,6 C 23,9 C 21,1 C 61 % 1010,9 hPa 0,0 l/m 0 min 0 min 0 W/m 0,0 km/h (0 Bft) 95,74 %
24.07.2018 22:38 25,6 C 23,9 C 21,1 C 61 % 1011,0 hPa 0,0 l/m 0 min 0 min 0 W/m 0,0 km/h (0 Bft) 97,83 %
24.07.2018 22:40 25,6 C 23,9 C 21,1 C 61 % 1010,9 hPa 0,0 l/m 0 min 0 min 0 W/m 0,0 km/h (0 Bft) 97,62 %
24.07.2018 22:42 25,5 C 23,9 C 21,1 C 61 % 1010,9 hPa 0,0 l/m 0 min 0 min 0 W/m 0,0 km/h (0 Bft) 98,00 %
24.07.2018 22:44 25,4 C 23,9 C 21,1 C 61 % 1010,9 hPa 0,0 l/m 0 min 0 min 0 W/m 0,0 km/h (0 Bft) 100,00 %
24.07.2018 22:46 25,4 C 23,9 C 21,1 C 61 % 1010,9 hPa 0,0 l/m 0 min 0 min 0 W/m 0,0 km/h (0 Bft) 100,00 %
24.07.2018 22:48 25,3 C 23,9 C 21,1 C 61 % 1010,9 hPa 0,0 l/m 0 min 0 min 0 W/m 0,0 km/h (0 Bft) 100,00 %
24.07.2018 22:50 25,3 C 23,9 C 21,1 C 61 % 1010,9 hPa 0,0 l/m 0 min 0 min 0 W/m 0,0 km/h (0 Bft) 100,00 %
24.07.2018 22:52 25,3 C 23,9 C 21,1 C 61 % 1011,0 hPa 0,0 l/m 0 min 0 min 0 W/m 0,0 km/h (0 Bft) 100,00 %
24.07.2018 22:54 25,2 C 23,9 C 21,1 C 62 % 1011,0 hPa 0,0 l/m 0 min 0 min 0 W/m 0,0 km/h (0 Bft) 100,00 %
24.07.2018 22:56 25,2 C 23,9 C 21,1 C 62 % 1010,9 hPa 0,0 l/m 0 min 0 min 0 W/m 0,0 km/h (0 Bft) 100,00 %
24.07.2018 22:58 25,1 C 23,9 C 21,1 C 62 % 1010,9 hPa 0,0 l/m 0 min 0 min 0 W/m 0,0 km/h (0 Bft) 100,00 %
24.07.2018 23:00 25,1 C 23,9 C 21,1 C 62 % 1011,0 hPa 0,0 l/m 0 min 0 min 0 W/m 2,3 km/h (1 Bft) 100,00 %
24.07.2018 23:02 25,1 C 23,3 C 21,1 C 63 % 1010,9 hPa 0,0 l/m 0 min 0 min 0 W/m 4,5 km/h (1 Bft) 97,87 %
24.07.2018 23:04 25,1 C 23,3 C 21,1 C 63 % 1010,9 hPa 0,0 l/m 0 min 0 min 0 W/m 2,3 km/h (1 Bft) 97,87 %
24.07.2018 23:06 25,0 C 23,3 C 21,1 C 62 % 1010,9 hPa 0,0 l/m 0 min 0 min 0 W/m 0,0 km/h (0 Bft) 95,35 %
24.07.2018 23:08 24,9 C 23,3 C 21,1 C 62 % 1011,0 hPa 0,0 l/m 0 min 0 min 0 W/m 0,0 km/h (0 Bft) 97,87 %
24.07.2018 23:10 24,9 C 23,3 C 21,1 C 62 % 1010,9 hPa 0,0 l/m 0 min 0 min 0 W/m 0,0 km/h (0 Bft) 100,00 %
24.07.2018 23:12 24,9 C 23,3 C 21,1 C 62 % 1010,9 hPa 0,0 l/m 0 min 0 min 0 W/m 0,0 km/h (0 Bft) 97,83 %
24.07.2018 23:14 24,8 C 23,3 C 21,1 C 63 % 1011,0 hPa 0,0 l/m 0 min 0 min 0 W/m 4,5 km/h (1 Bft) 98,00 %
24.07.2018 23:16 24,8 C 23,3 C 21,7 C 64 % 1011,1 hPa 0,0 l/m 0 min 0 min 0 W/m 11,3 km/h (2 Bft) 97,92 %
24.07.2018 23:18 24,8 C 23,9 C 22,2 C 63 % 1011,1 hPa 0,0 l/m 0 min 0 min 0 W/m 11,3 km/h (2 Bft) 97,87 %
24.07.2018 23:20 24,7 C 23,9 C 22,8 C 63 % 1011,1 hPa 0,0 l/m 0 min 0 min 0 W/m 6,8 km/h (2 Bft) 97,67 %
24.07.2018 23:22 24,7 C 23,9 C 22,8 C 64 % 1011,1 hPa 0,0 l/m 0 min 0 min 0 W/m 6,8 km/h (2 Bft) 95,65 %
24.07.2018 23:24 24,7 C 23,9 C 22,8 C 64 % 1011,1 hPa 0,0 l/m 0 min 0 min 0 W/m 9,0 km/h (2 Bft) 97,87 %
24.07.2018 23:26 24,7 C 23,9 C 22,8 C 64 % 1011,1 hPa 0,0 l/m 0 min 0 min 0 W/m 9,0 km/h (2 Bft) 97,87 %
24.07.2018 23:28 24,6 C 24,4 C 23,3 C 64 % 1011,1 hPa 0,0 l/m 0 min 0 min 0 W/m 9,0 km/h (2 Bft) 97,87 %
24.07.2018 23:30 24,6 C 24,4 C 23,3 C 64 % 1011,1 hPa 0,0 l/m 0 min 0 min 0 W/m 4,5 km/h (1 Bft) 98,00 %
24.07.2018 23:32 24,6 C 24,4 C 23,3 C 65 % 1011,1 hPa 0,0 l/m 0 min 0 min 0 W/m 11,3 km/h (2 Bft) 97,87 %
24.07.2018 23:34 24,7 C 24,4 C 23,3 C 65 % 1011,1 hPa 0,0 l/m 0 min 0 min 0 W/m 6,8 km/h (2 Bft) 97,83 %
24.07.2018 23:36 24,7 C 24,4 C 23,3 C 65 % 1011,2 hPa 0,0 l/m 0 min 0 min 0 W/m 11,3 km/h (2 Bft) 97,87 %
24.07.2018 23:38 24,7 C 24,4 C 23,3 C 66 % 1011,2 hPa 0,0 l/m 0 min 0 min 0 W/m 18,0 km/h (3 Bft) 97,92 %
24.07.2018 23:40 24,7 C 24,4 C 23,9 C 66 % 1011,2 hPa 0,0 l/m 0 min 0 min 0 W/m 6,8 km/h (2 Bft) 97,87 %
24.07.2018 23:42 24,8 C 24,4 C 23,3 C 67 % 1011,2 hPa 0,0 l/m 0 min 0 min 0 W/m 9,0 km/h (2 Bft) 95,74 %
24.07.2018 23:44 24,8 C 24,4 C 23,9 C 67 % 1011,2 hPa 0,0 l/m 0 min 0 min 0 W/m 6,8 km/h (2 Bft) 97,87 %
24.07.2018 23:46 24,9 C 24,4 C 23,9 C 68 % 1011,2 hPa 0,0 l/m 0 min 0 min 0 W/m 24,8 km/h (4 Bft) 97,87 %
24.07.2018 23:48 24,9 C 25,0 C 23,9 C 68 % 1011,3 hPa 0,0 l/m 0 min 0 min 0 W/m 9,0 km/h (2 Bft) 97,62 %
24.07.2018 23:50 25,0 C 24,4 C 23,9 C 68 % 1011,2 hPa 0,0 l/m 0 min 0 min 0 W/m 4,5 km/h (1 Bft) 97,87 %
24.07.2018 23:52 25,0 C 24,4 C 23,3 C 68 % 1011,3 hPa 0,0 l/m 0 min 0 min 0 W/m 6,8 km/h (2 Bft) 97,92 %
24.07.2018 23:54 25,1 C 24,4 C 23,3 C 68 % 1011,3 hPa 0,0 l/m 0 min 0 min 0 W/m 2,3 km/h (1 Bft) 95,74 %
24.07.2018 23:56 25,1 C 24,4 C 23,3 C 68 % 1011,2 hPa 0,0 l/m 0 min 0 min 0 W/m 2,3 km/h (1 Bft) 97,96 %
24.07.2018 23:58 25,1 C 24,4 C 23,3 C 68 % 1011,2 hPa 0,0 l/m 0 min 0 min 0 W/m 6,8 km/h (2 Bft) 100,00 %
_ Min-Zeit 07:10 02:16 05:48 18:04 19:24 - - - - 00:00 05:40
Minimum _ 19,1 C 18,3 C 17,8 C 38 % 1009,9 hPa - - - - 0,0 km/h (0 Bft) 86,96 %
_ Max-Zeit 17:22 12:04 17:16 07:12 00:10 00:00 12:08 00:00 14:46 23:46 01:10
Maximum _ 34,0 C 41,1 C 31,1 C 88 % 1014,0 hPa 0,0 l/m 4 min 0 min 884 W/m 24,8 km/h
NW (4 Bft)
100,00 %
Durchschnitt _ 26,4 C 26,9 C 23,2 C 64 % 1012,1 hPa #0,0 l/m #9:54 h #0 min. 424 W/m 4,3 km/h (1 Bft) 97,65 %
© 2018 W. Hausmann